Time,TemperatureF,DewpointF,PressureIn,WindDirection,WindDirectionDegrees,WindSpeedMPH,WindSpeedGustMPH,Humidity,HourlyPrecipIn,Conditions,Clouds,dailyrainin,SoftwareType,DateUTC
2013-01-02 00:00:00,47.8,47.3,29.95,SW,229,0.0,0.0,98,0.05,,,0.34,Wunderground v.1.15,2013-01-02 05:00:00,
2013-01-02 00:01:00,47.8,47.5,29.95,SW,229,0.0,0.0,99,0.05,,,0.34,Wunderground v.1.15,2013-01-02 05:01:00,
2013-01-02 00:04:00,47.7,47.2,29.96,SW,229,0.0,0.0,98,0.05,,,0.00,Wunderground v.1.15,2013-01-02 05:04:00,
2013-01-02 00:06:00,47.7,47.2,29.95,SW,229,0.0,0.0,98,0.05,,,0.00,Wunderground v.1.15,2013-01-02 05:06:00,
2013-01-02 00:08:00,47.7,47.2,29.95,SW,229,0.0,0.0,98,0.04,,,0.00,Wunderground v.1.15,2013-01-02 05:08:00,
2013-01-02 00:09:00,47.7,47.2,29.95,SW,229,0.0,0.0,98,0.04,,,0.00,Wunderground v.1.15,2013-01-02 05:09:00,
2013-01-02 00:10:00,47.7,47.2,29.95,SW,229,0.0,0.0,98,0.04,,,0.00,Wunderground v.1.15,2013-01-02 05:10:00,
2013-01-02 00:13:00,47.7,47.2,29.95,SW,229,0.0,0.0,98,0.00,,,0.00,Wunderground v.1.15,2013-01-02 05:13:00,
2013-01-02 00:14:00,47.6,47.1,29.95,SW,229,0.0,0.0,98,0.00,,,0.00,Wunderground v.1.15,2013-01-02 05:14:00,
2013-01-02 00:15:00,47.7,47.2,29.95,SW,229,0.0,0.0,98,0.00,,,0.00,Wunderground v.1.15,2013-01-02 05:15:00,
2013-01-02 00:20:00,47.7,47.4,29.95,SW,229,0.0,0.0,99,0.00,,,0.00,Wunderground v.1.15,2013-01-02 05:20:00,
2013-01-02 00:21:00,47.7,47.4,29.94,SW,229,0.0,0.0,99,0.00,,,0.00,Wunderground v.1.15,2013-01-02 05:21:00,
2013-01-02 00:23:00,47.6,47.3,29.95,SW,229,0.0,0.0,99,0.00,,,0.00,Wunderground v.1.15,2013-01-02 05:23:00,
2013-01-02 00:26:00,47.6,47.3,29.95,SW,229,0.0,0.0,99,0.00,,,0.00,Wunderground v.1.15,2013-01-02 05:26:00,
2013-01-02 00:28:00,47.6,47.3,29.95,SW,229,0.0,0.0,99,0.00,,,0.00,Wunderground v.1.15,2013-01-02 05:28:00,
2013-01-02 00:31:00,47.6,47.3,29.94,SW,230,0.0,0.0,99,0.00,,,0.00,Wunderground v.1.15,2013-01-02 05:31:00,
2013-01-02 00:32:00,47.6,47.3,29.94,SW,229,0.0,0.0,99,0.00,,,0.01,Wunderground v.1.15,2013-01-02 05:32:00,
2013-01-02 00:33:00,47.5,47.2,29.94,SW,229,0.0,0.0,99,0.00,,,0.01,Wunderground v.1.15,2013-01-02 05:33:00,
2013-01-02 00:36:00,47.5,47.2,29.94,SW,229,0.0,0.0,99,0.00,,,0.01,Wunderground v.1.15,2013-01-02 05:36:00,
2013-01-02 00:40:00,47.5,47.2,29.93,SW,229,0.0,0.0,99,0.00,,,0.01,Wunderground v.1.15,2013-01-02 05:40:00,
2013-01-02 00:41:00,47.4,46.9,29.93,SW,229,0.0,0.0,98,0.00,,,0.01,Wunderground v.1.15,2013-01-02 05:41:00,
2013-01-02 00:42:00,47.5,47.2,29.93,SW,229,0.0,0.0,99,0.00,,,0.01,Wunderground v.1.15,2013-01-02 05:42:00,
2013-01-02 00:44:00,47.5,47.2,29.93,SW,229,0.0,0.0,99,0.00,,,0.01,Wunderground v.1.15,2013-01-02 05:44:00,
2013-01-02 00:46:00,47.5,47.2,29.92,SW,229,0.0,0.0,99,0.00,,,0.01,Wunderground v.1.15,2013-01-02 05:46:00,
2013-01-02 00:48:00,47.4,47.1,29.93,SW,229,0.0,0.0,99,0.00,,,0.01,Wunderground v.1.15,2013-01-02 05:48:00,
2013-01-02 00:49:00,47.4,47.1,29.92,SW,229,0.0,0.0,99,0.00,,,0.01,Wunderground v.1.15,2013-01-02 05:49:00,
2013-01-02 00:51:00,47.4,46.9,29.93,SW,229,0.0,0.0,98,0.00,,,0.01,Wunderground v.1.15,2013-01-02 05:51:00,
2013-01-02 00:54:00,47.4,46.9,29.93,SW,229,0.0,0.0,98,0.00,,,0.01,Wunderground v.1.15,2013-01-02 05:54:00,
2013-01-02 00:55:00,47.4,46.9,29.93,SW,229,0.0,0.0,98,0.00,,,0.01,Wunderground v.1.15,2013-01-02 05:55:00,
2013-01-02 00:56:00,47.4,46.9,29.93,SW,229,0.0,0.0,98,0.00,,,0.01,Wunderground v.1.15,2013-01-02 05:56:00,
2013-01-02 00:57:00,47.4,46.9,29.93,SW,229,0.0,0.0,98,0.00,,,0.01,Wunderground v.1.15,2013-01-02 05:57:00,
2013-01-02 01:02:00,47.3,46.8,29.92,SW,229,0.0,0.0,98,0.00,,,0.01,Wunderground v.1.15,2013-01-02 06:02:00,
2013-01-02 01:04:00,47.3,46.8,29.92,SW,229,0.0,0.0,98,0.00,,,0.01,Wunderground v.1.15,2013-01-02 06:04:00,
2013-01-02 01:05:00,47.3,46.8,29.92,SW,229,0.0,0.0,98,0.00,,,0.01,Wunderground v.1.15,2013-01-02 06:05:00,
2013-01-02 01:08:00,47.3,46.8,29.93,SW,229,0.0,0.0,98,0.00,,,0.01,Wunderground v.1.15,2013-01-02 06:08:00,
2013-01-02 01:09:00,47.3,47.0,29.93,SW,229,0.0,0.0,99,0.00,,,0.01,Wunderground v.1.15,2013-01-02 06:09:00,
2013-01-02 01:11:00,47.3,47.0,29.93,SW,229,0.0,0.0,99,0.00,,,0.01,Wunderground v.1.15,2013-01-02 06:11:00,
2013-01-02 01:14:00,47.3,47.0,29.93,SW,229,0.0,0.0,99,0.00,,,0.02,Wunderground v.1.15,2013-01-02 06:14:00,
2013-01-02 01:18:00,47.3,47.0,29.92,SW,229,0.0,0.0,99,0.00,,,0.02,Wunderground v.1.15,2013-01-02 06:18:00,
2013-01-02 01:19:00,47.3,47.0,29.93,SW,229,0.0,0.0,99,0.00,,,0.02,Wunderground v.1.15,2013-01-02 06:19:00,
2013-01-02 01:21:00,47.2,46.9,29.93,SW,229,0.0,0.0,99,0.00,,,0.02,Wunderground v.1.15,2013-01-02 06:21:00,
2013-01-02 01:23:00,47.2,46.9,29.93,SW,229,0.0,0.0,99,0.00,,,0.02,Wunderground v.1.15,2013-01-02 06:23:00,
2013-01-02 01:24:00,47.2,46.9,29.93,SW,229,0.0,0.0,99,0.00,,,0.02,Wunderground v.1.15,2013-01-02 06:24:00,
2013-01-02 01:28:00,47.2,46.9,29.94,SW,229,0.0,0.0,99,0.00,,,0.02,Wunderground v.1.15,2013-01-02 06:28:00,
2013-01-02 01:29:00,47.2,46.9,29.94,SW,229,0.0,0.0,99,0.00,,,0.02,Wunderground v.1.15,2013-01-02 06:29:00,
2013-01-02 01:30:00,47.2,46.9,29.94,SW,229,0.0,0.0,99,0.00,,,0.02,Wunderground v.1.15,2013-01-02 06:30:00,
2013-01-02 01:33:00,47.2,46.9,29.94,SW,229,0.0,0.0,99,0.00,,,0.03,Wunderground v.1.15,2013-01-02 06:33:00,
2013-01-02 01:37:00,47.2,46.9,29.94,SW,229,0.0,0.0,99,0.09,,,0.04,Wunderground v.1.15,2013-01-02 06:37:00,
2013-01-02 01:40:00,47.2,46.9,29.94,SW,229,0.0,0.0,99,0.09,,,0.04,Wunderground v.1.15,2013-01-02 06:40:00,
2013-01-02 01:41:00,47.2,46.9,29.94,SW,229,0.0,0.0,99,0.09,,,0.04,Wunderground v.1.15,2013-01-02 06:41:00,
2013-01-02 01:43:00,47.2,46.9,29.94,SW,229,0.0,0.0,99,0.11,,,0.05,Wunderground v.1.15,2013-01-02 06:43:00,
2013-01-02 01:46:00,47.2,46.9,29.94,SW,229,0.0,0.0,99,0.11,,,0.05,Wunderground v.1.15,2013-01-02 06:46:00,
2013-01-02 01:47:00,47.2,46.9,29.94,SW,229,0.0,0.0,99,0.11,,,0.05,Wunderground v.1.15,2013-01-02 06:47:00,
2013-01-02 01:51:00,47.2,46.9,29.94,SW,229,0.0,0.0,99,0.10,,,0.06,Wunderground v.1.15,2013-01-02 06:51:00,
2013-01-02 01:52:00,47.1,46.8,29.94,SW,229,0.0,0.0,99,0.10,,,0.06,Wunderground v.1.15,2013-01-02 06:52:00,
2013-01-02 01:54:00,47.2,46.9,29.93,SW,229,0.0,0.0,99,0.10,,,0.06,Wunderground v.1.15,2013-01-02 06:54:00,
2013-01-02 01:59:00,47.1,46.8,29.92,SW,229,0.0,0.0,99,0.07,,,0.07,Wunderground v.1.15,2013-01-02 06:59:00,
2013-01-02 02:00:00,47.1,46.8,29.92,SW,229,0.0,0.0,99,0.07,,,0.07,Wunderground v.1.15,2013-01-02 07:00:00,
2013-01-02 02:01:00,47.1,46.8,29.92,SW,229,0.0,0.0,99,0.07,,,0.07,Wunderground v.1.15,2013-01-02 07:01:00,
2013-01-02 02:04:00,47.1,46.8,29.92,SW,229,0.0,0.0,99,0.07,,,0.07,Wunderground v.1.15,2013-01-02 07:04:00,
2013-01-02 02:05:00,47.1,46.8,29.92,SW,229,0.0,0.0,99,0.07,,,0.07,Wunderground v.1.15,2013-01-02 07:05:00,
2013-01-02 02:06:00,47.1,46.8,29.92,SW,229,0.0,0.0,99,0.06,,,0.07,Wunderground v.1.15,2013-01-02 07:06:00,
2013-01-02 02:09:00,47.1,46.8,29.92,SW,229,0.0,0.0,99,0.05,,,0.07,Wunderground v.1.15,2013-01-02 07:09:00,
2013-01-02 02:10:00,47.0,46.7,29.92,SW,229,0.0,0.0,99,0.05,,,0.07,Wunderground v.1.15,2013-01-02 07:10:00,
2013-01-02 02:11:00,47.0,46.7,29.92,SW,229,0.0,0.0,99,0.04,,,0.07,Wunderground v.1.15,2013-01-02 07:11:00,
2013-01-02 02:14:00,47.0,46.7,29.92,SW,229,0.0,0.0,99,0.00,,,0.07,Wunderground v.1.15,2013-01-02 07:14:00,
2013-01-02 02:15:00,47.0,46.7,29.92,SW,229,0.0,0.0,99,0.00,,,0.07,Wunderground v.1.15,2013-01-02 07:15:00,
2013-01-02 02:16:00,47.0,46.7,29.92,SW,229,0.0,0.0,99,0.00,,,0.07,Wunderground v.1.15,2013-01-02 07:16:00,
2013-01-02 02:19:00,46.9,46.6,29.93,SW,229,0.0,0.0,99,0.00,,,0.07,Wunderground v.1.15,2013-01-02 07:19:00,
2013-01-02 02:20:00,46.9,46.6,29.93,SW,229,0.0,0.0,99,0.00,,,0.07,Wunderground v.1.15,2013-01-02 07:20:00,
2013-01-02 02:21:00,46.9,46.6,29.93,SW,229,0.0,0.0,99,0.00,,,0.07,Wunderground v.1.15,2013-01-02 07:21:00,
2013-01-02 02:22:00,47.0,46.7,29.93,SW,229,0.0,0.0,99,0.00,,,0.07,Wunderground v.1.15,2013-01-02 07:22:00,
2013-01-02 02:24:00,46.9,46.6,29.93,SW,229,0.0,0.0,99,0.00,,,0.07,Wunderground v.1.15,2013-01-02 07:24:00,
2013-01-02 02:25:00,46.9,46.6,29.92,SW,229,0.0,0.0,99,0.00,,,0.07,Wunderground v.1.15,2013-01-02 07:25:00,
2013-01-02 02:26:00,46.9,46.6,29.92,ESE,110,0.0,0.0,99,0.00,,,0.07,Wunderground v.1.15,2013-01-02 07:26:00,
2013-01-02 02:27:00,46.9,46.6,29.91,ESE,105,2.0,2.0,99,0.00,,,0.07,Wunderground v.1.15,2013-01-02 07:27:00,
2013-01-02 02:30:00,46.9,46.6,29.90,SSE,159,0.0,0.0,99,0.00,,,0.07,Wunderground v.1.15,2013-01-02 07:30:00,
2013-01-02 02:31:00,46.9,46.6,29.91,WSW,253,0.0,0.0,99,0.00,,,0.07,Wunderground v.1.15,2013-01-02 07:31:00,
2013-01-02 02:32:00,46.9,46.6,29.92,WSW,253,0.0,0.0,99,0.00,,,0.07,Wunderground v.1.15,2013-01-02 07:32:00,
2013-01-02 02:35:00,46.9,46.6,29.93,West,273,0.0,0.0,99,0.00,,,0.07,Wunderground v.1.15,2013-01-02 07:35:00,
2013-01-02 02:36:00,47.0,46.7,29.93,West,273,0.0,0.0,99,0.00,,,0.07,Wunderground v.1.15,2013-01-02 07:36:00,
2013-01-02 02:37:00,46.9,46.6,29.93,West,273,0.0,0.0,99,0.00,,,0.07,Wunderground v.1.15,2013-01-02 07:37:00,
2013-01-02 02:40:00,46.9,46.6,29.93,West,273,0.0,0.0,99,0.00,,,0.07,Wunderground v.1.15,2013-01-02 07:40:00,
2013-01-02 02:41:00,46.9,46.6,29.93,West,273,0.0,0.0,99,0.00,,,0.07,Wunderground v.1.15,2013-01-02 07:41:00,
2013-01-02 02:42:00,46.9,46.6,29.94,West,273,0.0,0.0,99,0.00,,,0.07,Wunderground v.1.15,2013-01-02 07:42:00,
2013-01-02 02:45:00,46.9,46.6,29.92,East,79,1.0,2.0,99,0.00,,,0.07,Wunderground v.1.15,2013-01-02 07:45:00,
2013-01-02 02:46:00,46.9,46.6,29.93,NW,321,1.0,2.0,99,0.00,,,0.07,Wunderground v.1.15,2013-01-02 07:46:00,
2013-01-02 02:47:00,46.9,46.6,29.94,WNW,300,1.0,2.0,99,0.00,,,0.07,Wunderground v.1.15,2013-01-02 07:47:00,
2013-01-02 02:50:00,46.9,46.6,29.92,ENE,75,2.0,2.0,99,0.00,,,0.07,Wunderground v.1.15,2013-01-02 07:50:00,
2013-01-02 02:51:00,46.9,46.6,29.91,ENE,78,0.0,2.0,99,0.00,,,0.07,Wunderground v.1.15,2013-01-02 07:51:00,
2013-01-02 02:52:00,46.9,46.6,29.91,ESE,113,0.0,2.0,99,0.00,,,0.07,Wunderground v.1.15,2013-01-02 07:52:00,
2013-01-02 02:56:00,46.9,46.6,29.92,ESE,113,0.0,2.0,99,0.00,,,0.07,Wunderground v.1.15,2013-01-02 07:56:00,
2013-01-02 02:59:00,46.9,46.6,29.92,ESE,113,0.0,2.0,99,0.00,,,0.07,Wunderground v.1.15,2013-01-02 07:59:00,
2013-01-02 03:01:00,46.9,46.6,29.92,ESE,113,0.0,0.0,99,0.00,,,0.07,Wunderground v.1.15,2013-01-02 08:01:00,
2013-01-02 03:04:00,46.9,46.6,29.94,ESE,113,0.0,0.0,99,0.00,,,0.07,Wunderground v.1.15,2013-01-02 08:04:00,
2013-01-02 03:06:00,46.9,46.6,29.94,ESE,113,0.0,0.0,99,0.00,,,0.07,Wunderground v.1.15,2013-01-02 08:06:00,
2013-01-02 03:09:00,46.9,46.6,29.94,ESE,113,0.0,0.0,99,0.00,,,0.07,Wunderground v.1.15,2013-01-02 08:09:00,
2013-01-02 03:11:00,46.9,46.6,29.93,ESE,113,0.0,0.0,99,0.00,,,0.07,Wunderground v.1.15,2013-01-02 08:11:00,
2013-01-02 03:14:00,46.9,46.6,29.93,ESE,113,0.0,0.0,99,0.00,,,0.07,Wunderground v.1.15,2013-01-02 08:14:00,
2013-01-02 03:16:00,46.9,46.6,29.93,ESE,113,0.0,0.0,99,0.00,,,0.07,Wunderground v.1.15,2013-01-02 08:16:00,
2013-01-02 03:17:00,46.9,46.6,29.93,ESE,113,0.0,0.0,99,0.00,,,0.07,Wunderground v.1.15,2013-01-02 08:17:00,
2013-01-02 03:19:00,46.8,46.5,29.93,ESE,113,0.0,0.0,99,0.00,,,0.07,Wunderground v.1.15,2013-01-02 08:19:00,
2013-01-02 03:20:00,46.8,46.5,29.93,ESE,113,0.0,0.0,99,0.00,,,0.07,Wunderground v.1.15,2013-01-02 08:20:00,
2013-01-02 03:21:00,46.8,46.5,29.93,ESE,113,0.0,0.0,99,0.00,,,0.07,Wunderground v.1.15,2013-01-02 08:21:00,
2013-01-02 03:22:00,46.8,46.5,29.93,ESE,113,0.0,0.0,99,0.00,,,0.07,Wunderground v.1.15,2013-01-02 08:22:00,
2013-01-02 03:24:00,46.8,46.5,29.93,ESE,113,0.0,0.0,99,0.00,,,0.07,Wunderground v.1.15,2013-01-02 08:24:00,
2013-01-02 03:25:00,46.8,46.5,29.93,ESE,113,0.0,0.0,99,0.00,,,0.07,Wunderground v.1.15,2013-01-02 08:25:00,
2013-01-02 03:26:00,46.8,46.5,29.93,ESE,113,0.0,0.0,99,0.00,,,0.07,Wunderground v.1.15,2013-01-02 08:26:00,
2013-01-02 03:27:00,46.8,46.5,29.93,ESE,113,0.0,0.0,99,0.00,,,0.07,Wunderground v.1.15,2013-01-02 08:27:00,
2013-01-02 03:29:00,46.8,46.5,29.94,ESE,113,0.0,0.0,99,0.00,,,0.07,Wunderground v.1.15,2013-01-02 08:29:00,
2013-01-02 03:30:00,46.7,46.4,29.94,ESE,113,0.0,0.0,99,0.00,,,0.07,Wunderground v.1.15,2013-01-02 08:30:00,
2013-01-02 03:32:00,46.7,46.4,29.93,ESE,113,0.0,0.0,99,0.00,,,0.07,Wunderground v.1.15,2013-01-02 08:32:00,
2013-01-02 03:35:00,46.7,46.4,29.93,ESE,113,0.0,0.0,99,0.00,,,0.07,Wunderground v.1.15,2013-01-02 08:35:00,
2013-01-02 03:37:00,46.7,46.4,29.93,ESE,113,0.0,0.0,99,0.00,,,0.07,Wunderground v.1.15,2013-01-02 08:37:00,
2013-01-02 03:40:00,46.7,46.4,29.94,ESE,113,0.0,0.0,99,0.00,,,0.07,Wunderground v.1.15,2013-01-02 08:40:00,
2013-01-02 03:42:00,46.7,46.4,29.93,ESE,113,0.0,0.0,99,0.00,,,0.07,Wunderground v.1.15,2013-01-02 08:42:00,
2013-01-02 03:45:00,46.7,46.4,29.93,ESE,113,0.0,0.0,99,0.00,,,0.07,Wunderground v.1.15,2013-01-02 08:45:00,
2013-01-02 03:46:00,46.7,46.4,29.93,ESE,113,0.0,0.0,99,0.00,,,0.07,Wunderground v.1.15,2013-01-02 08:46:00,
2013-01-02 03:47:00,46.6,46.3,29.93,ESE,113,0.0,0.0,99,0.00,,,0.07,Wunderground v.1.15,2013-01-02 08:47:00,
2013-01-02 03:50:00,46.6,46.3,29.93,ESE,113,0.0,0.0,99,0.00,,,0.07,Wunderground v.1.15,2013-01-02 08:50:00,
2013-01-02 03:51:00,46.6,46.3,29.93,ESE,113,0.0,0.0,99,0.00,,,0.07,Wunderground v.1.15,2013-01-02 08:51:00,
2013-01-02 03:52:00,46.6,46.3,29.93,ESE,113,0.0,0.0,99,0.00,,,0.07,Wunderground v.1.15,2013-01-02 08:52:00,
2013-01-02 03:53:00,46.6,46.3,29.93,ESE,113,0.0,0.0,99,0.00,,,0.07,Wunderground v.1.15,2013-01-02 08:53:00,
2013-01-02 03:55:00,46.5,46.2,29.93,ESE,113,0.0,0.0,99,0.00,,,0.07,Wunderground v.1.15,2013-01-02 08:55:00,
2013-01-02 03:56:00,46.5,46.2,29.93,ESE,113,0.0,0.0,99,0.00,,,0.07,Wunderground v.1.15,2013-01-02 08:56:00,
2013-01-02 03:57:00,46.5,46.2,29.93,ESE,113,0.0,0.0,99,0.00,,,0.07,Wunderground v.1.15,2013-01-02 08:57:00,
2013-01-02 03:58:00,46.5,46.2,29.94,ESE,113,0.0,0.0,99,0.00,,,0.07,Wunderground v.1.15,2013-01-02 08:58:00,
2013-01-02 04:00:00,46.5,46.2,29.95,ESE,113,0.0,0.0,99,0.00,,,0.07,Wunderground v.1.15,2013-01-02 09:00:00,
2013-01-02 04:01:00,46.5,46.2,29.95,ESE,113,0.0,0.0,99,0.00,,,0.07,Wunderground v.1.15,2013-01-02 09:01:00,
2013-01-02 04:02:00,46.5,46.2,29.95,ESE,113,0.0,0.0,99,0.00,,,0.07,Wunderground v.1.15,2013-01-02 09:02:00,
2013-01-02 04:03:00,46.5,46.2,29.95,ESE,113,0.0,0.0,99,0.00,,,0.07,Wunderground v.1.15,2013-01-02 09:03:00,
2013-01-02 04:06:00,46.5,46.2,29.95,ESE,113,0.0,0.0,99,0.00,,,0.07,Wunderground v.1.15,2013-01-02 09:06:00,
2013-01-02 04:07:00,46.5,46.2,29.94,ESE,113,0.0,0.0,99,0.00,,,0.07,Wunderground v.1.15,2013-01-02 09:07:00,
2013-01-02 04:08:00,46.4,46.1,29.95,ESE,113,0.0,0.0,99,0.00,,,0.07,Wunderground v.1.15,2013-01-02 09:08:00,
2013-01-02 04:11:00,46.5,46.2,29.94,ESE,113,0.0,0.0,99,0.00,,,0.07,Wunderground v.1.15,2013-01-02 09:11:00,
2013-01-02 04:12:00,46.5,46.2,29.94,ESE,113,0.0,0.0,99,0.00,,,0.07,Wunderground v.1.15,2013-01-02 09:12:00,
2013-01-02 04:13:00,46.5,46.2,29.94,ESE,113,0.0,0.0,99,0.00,,,0.07,Wunderground v.1.15,2013-01-02 09:13:00,
2013-01-02 04:16:00,46.5,46.2,29.94,ESE,113,0.0,0.0,99,0.00,,,0.07,Wunderground v.1.15,2013-01-02 09:16:00,
2013-01-02 04:17:00,46.5,46.2,29.94,ESE,113,0.0,0.0,99,0.00,,,0.07,Wunderground v.1.15,2013-01-02 09:17:00,
2013-01-02 04:18:00,46.5,46.2,29.94,ESE,113,0.0,0.0,99,0.00,,,0.07,Wunderground v.1.15,2013-01-02 09:18:00,
2013-01-02 04:21:00,46.5,46.2,29.94,ESE,113,0.0,0.0,99,0.00,,,0.07,Wunderground v.1.15,2013-01-02 09:21:00,
2013-01-02 04:23:00,46.5,46.2,29.94,ESE,113,0.0,0.0,99,0.00,,,0.07,Wunderground v.1.15,2013-01-02 09:23:00,
2013-01-02 04:24:00,46.5,46.2,29.95,ESE,113,0.0,0.0,99,0.00,,,0.07,Wunderground v.1.15,2013-01-02 09:24:00,
2013-01-02 04:26:00,46.5,46.2,29.95,ESE,113,0.0,0.0,99,0.00,,,0.07,Wunderground v.1.15,2013-01-02 09:26:00,
2013-01-02 04:28:00,46.5,46.2,29.95,ESE,113,0.0,0.0,99,0.00,,,0.07,Wunderground v.1.15,2013-01-02 09:28:00,
2013-01-02 04:29:00,46.4,46.1,29.95,ESE,113,0.0,0.0,99,0.00,,,0.07,Wunderground v.1.15,2013-01-02 09:29:00,
2013-01-02 04:31:00,46.5,46.2,29.94,ESE,113,0.0,0.0,99,0.00,,,0.07,Wunderground v.1.15,2013-01-02 09:31:00,
2013-01-02 04:33:00,46.5,46.2,29.95,ESE,113,0.0,0.0,99,0.00,,,0.07,Wunderground v.1.15,2013-01-02 09:33:00,
2013-01-02 04:34:00,46.4,46.1,29.95,ESE,113,0.0,0.0,99,0.00,,,0.07,Wunderground v.1.15,2013-01-02 09:34:00,
2013-01-02 04:36:00,46.4,46.1,29.95,ESE,113,0.0,0.0,99,0.00,,,0.07,Wunderground v.1.15,2013-01-02 09:36:00,
2013-01-02 04:38:00,46.4,46.1,29.95,ESE,113,0.0,0.0,99,0.00,,,0.07,Wunderground v.1.15,2013-01-02 09:38:00,
2013-01-02 04:39:00,46.4,46.1,29.95,ESE,113,0.0,0.0,99,0.00,,,0.07,Wunderground v.1.15,2013-01-02 09:39:00,
2013-01-02 04:41:00,46.4,46.1,29.95,ESE,113,0.0,0.0,99,0.00,,,0.07,Wunderground v.1.15,2013-01-02 09:41:00,
2013-01-02 04:42:00,46.5,46.2,29.95,ESE,113,0.0,0.0,99,0.00,,,0.07,Wunderground v.1.15,2013-01-02 09:42:00,
2013-01-02 04:43:00,46.4,46.1,29.95,ESE,113,0.0,0.0,99,0.00,,,0.07,Wunderground v.1.15,2013-01-02 09:43:00,
2013-01-02 04:44:00,46.4,46.1,29.95,ESE,113,0.0,0.0,99,0.00,,,0.07,Wunderground v.1.15,2013-01-02 09:44:00,
2013-01-02 04:46:00,46.4,46.1,29.95,ESE,113,0.0,0.0,99,0.00,,,0.07,Wunderground v.1.15,2013-01-02 09:46:00,
2013-01-02 04:47:00,46.4,46.1,29.95,ESE,113,0.0,0.0,99,0.00,,,0.07,Wunderground v.1.15,2013-01-02 09:47:00,
2013-01-02 04:49:00,46.4,46.1,29.95,ESE,113,0.0,0.0,99,0.00,,,0.07,Wunderground v.1.15,2013-01-02 09:49:00,
2013-01-02 04:51:00,46.4,46.1,29.95,ESE,113,0.0,0.0,99,0.00,,,0.07,Wunderground v.1.15,2013-01-02 09:51:00,
2013-01-02 04:52:00,46.4,46.1,29.95,ESE,113,0.0,0.0,99,0.00,,,0.07,Wunderground v.1.15,2013-01-02 09:52:00,
2013-01-02 04:55:00,46.4,46.1,29.95,East,79,0.0,0.0,99,0.00,,,0.07,Wunderground v.1.15,2013-01-02 09:55:00,
2013-01-02 04:57:00,46.4,46.1,29.95,East,79,0.0,0.0,99,0.00,,,0.07,Wunderground v.1.15,2013-01-02 09:57:00,
2013-01-02 05:00:00,46.3,46.0,29.95,East,79,0.0,0.0,99,0.00,,,0.07,Wunderground v.1.15,2013-01-02 10:00:00,
2013-01-02 05:01:00,46.3,46.0,29.95,East,79,0.0,0.0,99,0.00,,,0.07,Wunderground v.1.15,2013-01-02 10:01:00,
2013-01-02 05:02:00,46.3,46.0,29.95,East,79,0.0,0.0,99,0.00,,,0.07,Wunderground v.1.15,2013-01-02 10:02:00,
2013-01-02 05:05:00,46.3,46.0,29.95,East,79,0.0,0.0,99,0.00,,,0.07,Wunderground v.1.15,2013-01-02 10:05:00,
2013-01-02 05:06:00,46.3,46.0,29.95,East,79,0.0,0.0,99,0.00,,,0.07,Wunderground v.1.15,2013-01-02 10:06:00,
2013-01-02 05:07:00,46.3,46.0,29.95,East,79,0.0,0.0,99,0.00,,,0.07,Wunderground v.1.15,2013-01-02 10:07:00,
2013-01-02 05:08:00,46.3,46.0,29.95,East,79,0.0,0.0,99,0.00,,,0.07,Wunderground v.1.15,2013-01-02 10:08:00,
2013-01-02 05:10:00,46.3,46.0,29.96,ENE,67,0.0,1.0,99,0.00,,,0.07,Wunderground v.1.15,2013-01-02 10:10:00,
2013-01-02 05:11:00,46.3,46.0,29.96,ENE,67,0.0,1.0,99,0.00,,,0.07,Wunderground v.1.15,2013-01-02 10:11:00,
2013-01-02 05:12:00,46.3,46.0,29.96,ENE,67,0.0,1.0,99,0.00,,,0.07,Wunderground v.1.15,2013-01-02 10:12:00,
2013-01-02 05:13:00,46.3,46.0,29.96,ENE,67,0.0,1.0,99,0.00,,,0.07,Wunderground v.1.15,2013-01-02 10:13:00,
2013-01-02 05:15:00,46.2,45.9,29.96,ENE,60,0.0,2.0,99,0.00,,,0.07,Wunderground v.1.15,2013-01-02 10:15:00,
2013-01-02 05:16:00,46.2,45.9,29.96,ENE,60,0.0,2.0,99,0.00,,,0.07,Wunderground v.1.15,2013-01-02 10:16:00,
2013-01-02 05:17:00,46.2,45.9,29.96,ENE,60,0.0,2.0,99,0.00,,,0.07,Wunderground v.1.15,2013-01-02 10:17:00,
2013-01-02 05:18:00,46.2,45.9,29.96,WNW,287,2.0,2.0,99,0.00,,,0.07,Wunderground v.1.15,2013-01-02 10:18:00,
2013-01-02 05:20:00,46.2,45.9,29.97,WNW,288,0.0,0.0,99,0.00,,,0.07,Wunderground v.1.15,2013-01-02 10:20:00,
2013-01-02 05:21:00,46.2,45.9,29.97,NNE,20,0.0,0.0,99,0.00,,,0.07,Wunderground v.1.15,2013-01-02 10:21:00,
2013-01-02 05:22:00,46.2,45.9,29.96,East,82,0.0,0.0,99,0.00,,,0.07,Wunderground v.1.15,2013-01-02 10:22:00,
2013-01-02 05:23:00,46.2,45.9,29.97,ENE,78,0.0,0.0,99,0.00,,,0.07,Wunderground v.1.15,2013-01-02 10:23:00,
2013-01-02 05:26:00,46.2,45.9,29.97,NE,44,0.0,0.0,99,0.00,,,0.07,Wunderground v.1.15,2013-01-02 10:26:00,
2013-01-02 05:27:00,46.2,45.9,29.97,North,349,0.0,0.0,99,0.00,,,0.07,Wunderground v.1.15,2013-01-02 10:27:00,
2013-01-02 05:29:00,46.2,45.9,29.97,NNW,343,2.0,2.0,99,0.00,,,0.07,Wunderground v.1.15,2013-01-02 10:29:00,
2013-01-02 05:31:00,46.1,45.8,29.97,NE,34,3.0,6.0,99,0.00,,,0.07,Wunderground v.1.15,2013-01-02 10:31:00,
2013-01-02 05:32:00,46.1,45.8,29.97,ENE,71,2.0,6.0,99,0.00,,,0.07,Wunderground v.1.15,2013-01-02 10:32:00,
2013-01-02 05:34:00,46.1,45.8,29.97,NE,41,4.0,6.0,99,0.00,,,0.07,Wunderground v.1.15,2013-01-02 10:34:00,
2013-01-02 05:36:00,45.9,45.6,29.97,ENE,69,1.0,6.0,99,0.00,,,0.07,Wunderground v.1.15,2013-01-02 10:36:00,
2013-01-02 05:37:00,45.9,45.6,29.97,ENE,69,0.0,6.0,99,0.00,,,0.07,Wunderground v.1.15,2013-01-02 10:37:00,
2013-01-02 05:39:00,45.9,45.6,29.97,NNE,12,0.0,6.0,99,0.00,,,0.07,Wunderground v.1.15,2013-01-02 10:39:00,
2013-01-02 05:42:00,45.8,45.5,29.98,NNE,23,3.0,3.0,99,0.00,,,0.07,Wunderground v.1.15,2013-01-02 10:42:00,
2013-01-02 05:44:00,45.7,45.4,29.98,North,5,2.0,3.0,99,0.00,,,0.07,Wunderground v.1.15,2013-01-02 10:44:00,
2013-01-02 05:47:00,45.6,45.3,29.98,NE,41,2.0,3.0,99,0.00,,,0.07,Wunderground v.1.15,2013-01-02 10:47:00,
2013-01-02 05:50:00,45.5,45.2,29.98,ENE,62,0.0,1.0,99,0.00,,,0.07,Wunderground v.1.15,2013-01-02 10:50:00,
2013-01-02 05:52:00,45.4,45.1,29.99,North,5,2.0,5.0,99,0.00,,,0.07,Wunderground v.1.15,2013-01-02 10:52:00,
2013-01-02 05:55:00,45.3,45.0,29.98,NNW,332,0.0,7.0,99,0.00,,,0.07,Wunderground v.1.15,2013-01-02 10:55:00,
2013-01-02 05:57:00,45.2,44.7,29.98,ENE,65,1.0,7.0,98,0.00,,,0.07,Wunderground v.1.15,2013-01-02 10:57:00,
2013-01-02 05:58:00,45.1,44.6,29.98,ENE,67,2.0,7.0,98,0.00,,,0.07,Wunderground v.1.15,2013-01-02 10:58:00,
2013-01-02 06:00:00,45.1,44.6,29.99,East,79,0.0,2.0,98,0.00,,,0.07,Wunderground v.1.15,2013-01-02 11:00:00,
2013-01-02 06:02:00,45.1,44.6,29.98,East,79,0.0,2.0,98,0.00,,,0.07,Wunderground v.1.15,2013-01-02 11:02:00,
2013-01-02 06:03:00,45.1,44.6,29.98,East,79,0.0,2.0,98,0.00,,,0.07,Wunderground v.1.15,2013-01-02 11:03:00,
2013-01-02 06:05:00,45.1,44.6,29.98,SW,228,1.0,2.0,98,0.00,,,0.07,Wunderground v.1.15,2013-01-02 11:05:00,
2013-01-02 06:07:00,45.0,44.5,29.99,NNE,23,0.0,2.0,98,0.00,,,0.07,Wunderground v.1.15,2013-01-02 11:07:00,
2013-01-02 06:08:00,44.9,44.4,29.99,NNE,23,0.0,2.0,98,0.00,,,0.07,Wunderground v.1.15,2013-01-02 11:08:00,
2013-01-02 06:09:00,44.9,44.4,29.99,NNE,23,0.0,2.0,98,0.00,,,0.07,Wunderground v.1.15,2013-01-02 11:09:00,
2013-01-02 06:10:00,44.9,44.4,29.99,East,94,1.0,1.0,98,0.00,,,0.07,Wunderground v.1.15,2013-01-02 11:10:00,
2013-01-02 06:13:00,44.9,44.4,29.99,ENE,69,0.0,2.0,98,0.00,,,0.07,Wunderground v.1.15,2013-01-02 11:13:00,
2013-01-02 06:14:00,44.9,44.4,29.99,ENE,69,0.0,2.0,98,0.00,,,0.07,Wunderground v.1.15,2013-01-02 11:14:00,
2013-01-02 06:15:00,44.9,44.4,29.99,ENE,69,0.0,2.0,98,0.00,,,0.07,Wunderground v.1.15,2013-01-02 11:15:00,
2013-01-02 06:18:00,44.8,44.3,29.99,ENE,69,0.0,2.0,98,0.00,,,0.07,Wunderground v.1.15,2013-01-02 11:18:00,
2013-01-02 06:19:00,44.8,44.3,29.99,ENE,69,0.0,2.0,98,0.00,,,0.07,Wunderground v.1.15,2013-01-02 11:19:00,
2013-01-02 06:20:00,44.8,44.3,29.99,ENE,69,0.0,1.0,98,0.00,,,0.07,Wunderground v.1.15,2013-01-02 11:20:00,
2013-01-02 06:23:00,44.7,44.2,29.99,ESE,112,0.0,2.0,98,0.00,,,0.07,Wunderground v.1.15,2013-01-02 11:23:00,
2013-01-02 06:24:00,44.7,44.2,29.99,ENE,77,0.0,2.0,98,0.00,,,0.07,Wunderground v.1.15,2013-01-02 11:24:00,
2013-01-02 06:26:00,44.7,44.2,29.99,East,83,0.0,2.0,98,0.00,,,0.07,Wunderground v.1.15,2013-01-02 11:26:00,
2013-01-02 06:28:00,44.6,44.1,29.99,SE,125,0.0,2.0,98,0.00,,,0.07,Wunderground v.1.15,2013-01-02 11:28:00,
2013-01-02 06:29:00,44.5,44.0,29.99,SE,126,0.0,2.0,98,0.00,,,0.07,Wunderground v.1.15,2013-01-02 11:29:00,
2013-01-02 06:31:00,44.5,44.0,29.99,SE,125,0.0,0.0,98,0.00,,,0.07,Wunderground v.1.15,2013-01-02 11:31:00,
2013-01-02 06:34:00,44.5,44.0,29.99,SE,124,0.0,0.0,98,0.00,,,0.07,Wunderground v.1.15,2013-01-02 11:34:00,
2013-01-02 06:35:00,44.4,43.9,29.99,SE,124,0.0,0.0,98,0.00,,,0.07,Wunderground v.1.15,2013-01-02 11:35:00,
2013-01-02 06:36:00,44.4,43.9,29.99,SE,124,0.0,0.0,98,0.00,,,0.07,Wunderground v.1.15,2013-01-02 11:36:00,
2013-01-02 06:39:00,44.4,43.9,29.99,SE,124,0.0,0.0,98,0.00,,,0.07,Wunderground v.1.15,2013-01-02 11:39:00,
2013-01-02 06:40:00,44.3,43.8,29.99,ESE,121,0.0,0.0,98,0.00,,,0.07,Wunderground v.1.15,2013-01-02 11:40:00,
2013-01-02 06:41:00,44.3,43.8,29.99,ESE,121,0.0,0.0,98,0.00,,,0.07,Wunderground v.1.15,2013-01-02 11:41:00,
2013-01-02 06:44:00,44.3,43.8,29.99,ESE,121,0.0,2.0,98,0.00,,,0.07,Wunderground v.1.15,2013-01-02 11:44:00,
2013-01-02 06:45:00,44.3,43.8,29.99,ESE,120,0.0,2.0,98,0.00,,,0.07,Wunderground v.1.15,2013-01-02 11:45:00,
2013-01-02 06:46:00,44.3,43.8,30.00,ESE,121,0.0,2.0,98,0.00,,,0.07,Wunderground v.1.15,2013-01-02 11:46:00,
2013-01-02 06:49:00,44.2,43.7,30.00,East,94,0.0,2.0,98,0.00,,,0.07,Wunderground v.1.15,2013-01-02 11:49:00,
2013-01-02 06:50:00,44.2,43.7,30.00,East,91,0.0,0.0,98,0.00,,,0.07,Wunderground v.1.15,2013-01-02 11:50:00,
2013-01-02 06:51:00,44.2,43.7,30.00,East,90,0.0,0.0,98,0.00,,,0.07,Wunderground v.1.15,2013-01-02 11:51:00,
2013-01-02 06:54:00,44.2,43.7,30.00,East,90,0.0,0.0,98,0.00,,,0.07,Wunderground v.1.15,2013-01-02 11:54:00,
2013-01-02 06:55:00,44.2,43.7,30.00,East,91,0.0,0.0,98,0.00,,,0.07,Wunderground v.1.15,2013-01-02 11:55:00,
2013-01-02 06:56:00,44.2,43.7,30.00,East,91,0.0,0.0,98,0.00,,,0.07,Wunderground v.1.15,2013-01-02 11:56:00,
2013-01-02 06:59:00,44.2,43.7,29.99,East,92,0.0,0.0,98,0.00,,,0.07,Wunderground v.1.15,2013-01-02 11:59:00,
2013-01-02 07:00:00,44.1,43.6,30.00,East,92,0.0,0.0,98,0.00,,,0.07,Wunderground v.1.15,2013-01-02 12:00:00,
2013-01-02 07:01:00,44.1,43.3,30.00,East,92,0.0,0.0,97,0.00,,,0.07,Wunderground v.1.15,2013-01-02 12:01:00,
2013-01-02 07:04:00,44.1,43.3,30.00,East,90,0.0,0.0,97,0.00,,,0.07,Wunderground v.1.15,2013-01-02 12:04:00,
2013-01-02 07:05:00,44.1,43.3,30.00,East,90,0.0,0.0,97,0.00,,,0.07,Wunderground v.1.15,2013-01-02 12:05:00,
2013-01-02 07:06:00,44.1,43.3,29.99,East,82,0.0,0.0,97,0.00,,,0.07,Wunderground v.1.15,2013-01-02 12:06:00,
2013-01-02 07:09:00,44.1,43.3,29.99,East,84,1.0,1.0,97,0.00,,,0.07,Wunderground v.1.15,2013-01-02 12:09:00,
2013-01-02 07:10:00,44.1,43.3,29.99,East,84,1.0,1.0,97,0.00,,,0.07,Wunderground v.1.15,2013-01-02 12:10:00,
2013-01-02 07:11:00,44.1,43.3,29.99,East,84,0.0,1.0,97,0.00,,,0.07,Wunderground v.1.15,2013-01-02 12:11:00,
2013-01-02 07:14:00,44.1,43.3,29.99,East,85,0.0,1.0,97,0.00,,,0.07,Wunderground v.1.15,2013-01-02 12:14:00,
2013-01-02 07:15:00,44.1,43.3,29.99,East,85,0.0,1.0,97,0.00,,,0.07,Wunderground v.1.15,2013-01-02 12:15:00,
2013-01-02 07:16:00,44.1,43.3,29.99,East,84,0.0,1.0,97,0.00,,,0.07,Wunderground v.1.15,2013-01-02 12:16:00,
2013-01-02 07:19:00,44.1,43.3,29.99,East,85,0.0,1.0,97,0.00,,,0.07,Wunderground v.1.15,2013-01-02 12:19:00,
2013-01-02 07:20:00,44.1,43.3,29.99,East,84,0.0,0.0,97,0.00,,,0.07,Wunderground v.1.15,2013-01-02 12:20:00,
2013-01-02 07:21:00,44.1,43.3,30.00,East,84,0.0,0.0,97,0.00,,,0.07,Wunderground v.1.15,2013-01-02 12:21:00,
2013-01-02 07:24:00,44.1,43.3,30.00,East,84,0.0,0.0,97,0.00,,,0.07,Wunderground v.1.15,2013-01-02 12:24:00,
2013-01-02 07:25:00,44.0,43.2,30.00,East,85,0.0,0.0,97,0.00,,,0.07,Wunderground v.1.15,2013-01-02 12:25:00,
2013-01-02 07:26:00,44.0,43.2,30.00,East,85,0.0,0.0,97,0.00,,,0.07,Wunderground v.1.15,2013-01-02 12:26:00,
2013-01-02 07:27:00,44.0,43.2,30.00,East,85,0.0,0.0,97,0.00,,,0.07,Wunderground v.1.15,2013-01-02 12:27:00,
2013-01-02 07:29:00,44.0,43.2,30.00,East,85,0.0,0.0,97,0.00,,,0.07,Wunderground v.1.15,2013-01-02 12:29:00,
2013-01-02 07:30:00,44.0,43.2,30.00,East,84,0.0,0.0,97,0.00,,,0.07,Wunderground v.1.15,2013-01-02 12:30:00,
2013-01-02 07:31:00,44.0,43.2,30.00,East,85,0.0,0.0,97,0.00,,,0.07,Wunderground v.1.15,2013-01-02 12:31:00,
2013-01-02 07:32:00,44.0,43.2,30.00,East,84,0.0,0.0,97,0.00,,,0.07,Wunderground v.1.15,2013-01-02 12:32:00,
2013-01-02 07:34:00,44.0,43.2,30.00,East,85,0.0,0.0,97,0.00,,,0.07,Wunderground v.1.15,2013-01-02 12:34:00,
2013-01-02 07:35:00,44.0,43.2,30.00,East,84,0.0,0.0,97,0.00,,,0.07,Wunderground v.1.15,2013-01-02 12:35:00,
2013-01-02 07:36:00,44.0,43.2,30.00,East,84,0.0,0.0,97,0.00,,,0.07,Wunderground v.1.15,2013-01-02 12:36:00,
2013-01-02 07:37:00,44.0,43.2,30.00,East,85,0.0,0.0,97,0.00,,,0.07,Wunderground v.1.15,2013-01-02 12:37:00,
2013-01-02 07:39:00,44.0,43.2,30.00,East,84,0.0,0.0,97,0.00,,,0.07,Wunderground v.1.15,2013-01-02 12:39:00,
2013-01-02 07:41:00,44.0,43.2,30.00,East,85,0.0,0.0,97,0.00,,,0.07,Wunderground v.1.15,2013-01-02 12:41:00,
2013-01-02 07:42:00,43.9,43.1,30.00,East,84,0.0,0.0,97,0.00,,,0.07,Wunderground v.1.15,2013-01-02 12:42:00,
2013-01-02 07:45:00,43.9,43.1,30.00,East,84,0.0,0.0,97,0.00,,,0.07,Wunderground v.1.15,2013-01-02 12:45:00,
2013-01-02 07:46:00,43.9,43.1,30.00,East,85,0.0,0.0,97,0.00,,,0.07,Wunderground v.1.15,2013-01-02 12:46:00,
2013-01-02 07:47:00,43.9,43.4,30.00,East,84,0.0,0.0,98,0.00,,,0.07,Wunderground v.1.15,2013-01-02 12:47:00,
2013-01-02 07:50:00,43.9,43.4,30.00,East,84,0.0,0.0,98,0.00,,,0.07,Wunderground v.1.15,2013-01-02 12:50:00,
2013-01-02 07:51:00,43.9,43.4,30.00,East,84,0.0,0.0,98,0.00,,,0.07,Wunderground v.1.15,2013-01-02 12:51:00,
2013-01-02 07:52:00,43.9,43.4,30.00,East,85,0.0,0.0,98,0.00,,,0.07,Wunderground v.1.15,2013-01-02 12:52:00,
2013-01-02 07:55:00,43.9,43.4,30.01,East,84,0.0,0.0,98,0.00,,,0.07,Wunderground v.1.15,2013-01-02 12:55:00,
2013-01-02 07:56:00,43.9,43.4,30.01,East,85,0.0,0.0,98,0.00,,,0.07,Wunderground v.1.15,2013-01-02 12:56:00,
2013-01-02 07:57:00,43.9,43.4,30.01,East,85,0.0,0.0,98,0.00,,,0.07,Wunderground v.1.15,2013-01-02 12:57:00,
2013-01-02 08:00:00,43.9,43.4,30.01,East,85,0.0,0.0,98,0.00,,,0.07,Wunderground v.1.15,2013-01-02 13:00:00,
2013-01-02 08:01:00,43.9,43.4,30.01,East,84,0.0,0.0,98,0.00,,,0.07,Wunderground v.1.15,2013-01-02 13:01:00,
2013-01-02 08:02:00,43.9,43.4,30.01,East,84,0.0,0.0,98,0.00,,,0.07,Wunderground v.1.15,2013-01-02 13:02:00,
2013-01-02 08:05:00,43.9,43.4,30.02,East,85,0.0,0.0,98,0.00,,,0.07,Wunderground v.1.15,2013-01-02 13:05:00,
2013-01-02 08:06:00,43.9,43.4,30.02,East,85,0.0,0.0,98,0.00,,,0.07,Wunderground v.1.15,2013-01-02 13:06:00,
2013-01-02 08:07:00,43.9,43.4,30.02,East,84,0.0,0.0,98,0.00,,,0.07,Wunderground v.1.15,2013-01-02 13:07:00,
2013-01-02 08:10:00,43.9,43.4,30.02,East,85,0.0,0.0,98,0.00,,,0.07,Wunderground v.1.15,2013-01-02 13:10:00,
2013-01-02 08:11:00,43.8,43.3,30.02,East,85,0.0,0.0,98,0.00,,,0.07,Wunderground v.1.15,2013-01-02 13:11:00,
2013-01-02 08:12:00,43.9,43.4,30.02,East,85,0.0,0.0,98,0.00,,,0.07,Wunderground v.1.15,2013-01-02 13:12:00,
2013-01-02 08:13:00,43.9,43.4,30.02,East,85,0.0,0.0,98,0.00,,,0.07,Wunderground v.1.15,2013-01-02 13:13:00,
2013-01-02 08:15:00,43.9,43.4,30.03,WNW,300,0.0,0.0,98,0.00,,,0.07,Wunderground v.1.15,2013-01-02 13:15:00,
2013-01-02 08:16:00,43.9,43.4,30.02,WNW,300,0.0,0.0,98,0.00,,,0.07,Wunderground v.1.15,2013-01-02 13:16:00,
2013-01-02 08:17:00,43.9,43.4,30.02,WNW,300,0.0,0.0,98,0.00,,,0.07,Wunderground v.1.15,2013-01-02 13:17:00,
2013-01-02 08:18:00,43.9,43.4,30.03,WNW,300,0.0,0.0,98,0.00,,,0.07,Wunderground v.1.15,2013-01-02 13:18:00,
2013-01-02 08:20:00,44.0,43.5,30.03,NW,326,0.0,0.0,98,0.00,,,0.07,Wunderground v.1.15,2013-01-02 13:20:00,
2013-01-02 08:22:00,44.0,43.5,30.03,NNE,30,0.0,0.0,98,0.00,,,0.07,Wunderground v.1.15,2013-01-02 13:22:00,
2013-01-02 08:23:00,44.0,43.5,30.03,NNE,30,0.0,0.0,98,0.00,,,0.07,Wunderground v.1.15,2013-01-02 13:23:00,
2013-01-02 08:25:00,44.0,43.5,30.03,NNE,30,0.0,0.0,98,0.00,,,0.07,Wunderground v.1.15,2013-01-02 13:25:00,
2013-01-02 08:27:00,44.0,43.5,30.03,NNE,30,0.0,0.0,98,0.00,,,0.07,Wunderground v.1.15,2013-01-02 13:27:00,
2013-01-02 08:28:00,44.0,43.5,30.03,NNE,30,0.0,0.0,98,0.00,,,0.07,Wunderground v.1.15,2013-01-02 13:28:00,
2013-01-02 08:31:00,44.1,43.6,30.03,NNE,30,0.0,0.0,98,0.00,,,0.07,Wunderground v.1.15,2013-01-02 13:31:00,
2013-01-02 08:32:00,44.1,43.6,30.04,NNE,30,0.0,0.0,98,0.00,,,0.07,Wunderground v.1.15,2013-01-02 13:32:00,
2013-01-02 08:33:00,44.1,43.6,30.04,NNE,30,0.0,0.0,98,0.00,,,0.07,Wunderground v.1.15,2013-01-02 13:33:00,
2013-01-02 08:36:00,44.2,43.7,30.04,NNE,30,0.0,0.0,98,0.00,,,0.07,Wunderground v.1.15,2013-01-02 13:36:00,
2013-01-02 08:37:00,44.1,43.6,30.04,NNE,30,0.0,0.0,98,0.00,,,0.07,Wunderground v.1.15,2013-01-02 13:37:00,
2013-01-02 08:38:00,44.2,43.7,30.04,NE,39,0.0,0.0,98,0.00,,,0.07,Wunderground v.1.15,2013-01-02 13:38:00,
2013-01-02 08:41:00,44.2,43.7,30.04,NE,39,0.0,0.0,98,0.00,,,0.07,Wunderground v.1.15,2013-01-02 13:41:00,
2013-01-02 08:42:00,44.2,43.7,30.04,NE,39,0.0,0.0,98,0.00,,,0.07,Wunderground v.1.15,2013-01-02 13:42:00,
2013-01-02 08:43:00,44.3,43.8,30.05,NE,38,0.0,0.0,98,0.00,,,0.07,Wunderground v.1.15,2013-01-02 13:43:00,
2013-01-02 08:46:00,44.3,43.8,30.05,NE,56,0.0,0.0,98,0.00,,,0.07,Wunderground v.1.15,2013-01-02 13:46:00,
2013-01-02 08:47:00,44.4,43.9,30.05,NW,319,2.0,2.0,98,0.00,,,0.07,Wunderground v.1.15,2013-01-02 13:47:00,
2013-01-02 08:49:00,44.4,43.9,30.05,ENE,74,1.0,3.0,98,0.00,,,0.07,Wunderground v.1.15,2013-01-02 13:49:00,
2013-01-02 08:51:00,44.4,43.9,30.05,ENE,68,0.0,1.0,98,0.00,,,0.07,Wunderground v.1.15,2013-01-02 13:51:00,
2013-01-02 08:52:00,44.4,43.9,30.05,ENE,68,0.0,1.0,98,0.00,,,0.07,Wunderground v.1.15,2013-01-02 13:52:00,
2013-01-02 08:53:00,44.5,44.0,30.05,ENE,67,0.0,1.0,98,0.00,,,0.07,Wunderground v.1.15,2013-01-02 13:53:00,
2013-01-02 08:54:00,44.5,44.0,30.05,ENE,67,0.0,1.0,98,0.00,,,0.07,Wunderground v.1.15,2013-01-02 13:54:00,
2013-01-02 08:56:00,44.6,44.1,30.05,ENE,59,0.0,1.0,98,0.00,,,0.07,Wunderground v.1.15,2013-01-02 13:56:00,
2013-01-02 08:57:00,44.6,44.1,30.05,ENE,60,0.0,1.0,98,0.00,,,0.07,Wunderground v.1.15,2013-01-02 13:57:00,
2013-01-02 08:58:00,44.6,44.1,30.05,ENE,60,0.0,1.0,98,0.00,,,0.07,Wunderground v.1.15,2013-01-02 13:58:00,
2013-01-02 08:59:00,44.6,44.1,30.06,ENE,61,0.0,1.0,98,0.00,,,0.07,Wunderground v.1.15,2013-01-02 13:59:00,
2013-01-02 09:02:00,44.5,44.0,30.06,NNW,342,2.0,4.0,98,0.00,,,0.07,Wunderground v.1.15,2013-01-02 14:02:00,
2013-01-02 09:03:00,44.5,44.0,30.06,NNE,17,0.0,4.0,98,0.00,,,0.07,Wunderground v.1.15,2013-01-02 14:03:00,
2013-01-02 09:04:00,44.5,44.0,30.06,ENE,67,3.0,4.0,98,0.00,,,0.07,Wunderground v.1.15,2013-01-02 14:04:00,
2013-01-02 09:07:00,44.5,44.0,30.06,NW,322,2.0,4.0,98,0.00,,,0.07,Wunderground v.1.15,2013-01-02 14:07:00,
2013-01-02 09:08:00,44.5,44.0,30.06,East,79,0.0,4.0,98,0.00,,,0.07,Wunderground v.1.15,2013-01-02 14:08:00,
2013-01-02 09:09:00,44.6,44.1,30.06,ENE,74,1.0,4.0,98,0.00,,,0.07,Wunderground v.1.15,2013-01-02 14:09:00,
2013-01-02 09:12:00,44.6,43.8,30.06,East,90,0.0,2.0,97,0.00,,,0.07,Wunderground v.1.15,2013-01-02 14:12:00,
2013-01-02 09:13:00,44.5,43.7,30.07,NE,37,1.0,6.0,97,0.00,,,0.07,Wunderground v.1.15,2013-01-02 14:13:00,
2013-01-02 09:15:00,44.5,43.7,30.07,ENE,69,3.0,6.0,97,0.00,,,0.07,Wunderground v.1.15,2013-01-02 14:15:00,
2013-01-02 09:17:00,44.4,43.6,30.07,NE,39,0.0,6.0,97,0.00,,,0.07,Wunderground v.1.15,2013-01-02 14:17:00,
2013-01-02 09:18:00,44.4,43.6,30.07,North,353,0.0,6.0,97,0.00,,,0.07,Wunderground v.1.15,2013-01-02 14:18:00,
2013-01-02 09:20:00,44.4,43.3,30.08,ENE,64,5.0,6.0,96,0.00,,,0.07,Wunderground v.1.15,2013-01-02 14:20:00,
2013-01-02 09:22:00,44.2,42.9,30.08,ENE,75,1.0,6.0,95,0.00,,,0.07,Wunderground v.1.15,2013-01-02 14:22:00,
2013-01-02 09:23:00,44.2,42.9,30.07,NE,36,2.0,6.0,95,0.00,,,0.07,Wunderground v.1.15,2013-01-02 14:23:00,
2013-01-02 09:24:00,44.2,42.9,30.07,NE,50,2.0,6.0,95,0.00,,,0.07,Wunderground v.1.15,2013-01-02 14:24:00,
2013-01-02 09:25:00,44.1,42.8,30.07,NE,56,1.0,6.0,95,0.00,,,0.07,Wunderground v.1.15,2013-01-02 14:25:00,
2013-01-02 09:27:00,44.0,42.7,30.07,ENE,65,3.0,6.0,95,0.00,,,0.07,Wunderground v.1.15,2013-01-02 14:27:00,
2013-01-02 09:29:00,44.0,42.4,30.07,NE,39,2.0,6.0,94,0.00,,,0.07,Wunderground v.1.15,2013-01-02 14:29:00,
2013-01-02 09:30:00,43.9,42.3,30.07,NE,54,0.0,2.0,94,0.00,,,0.07,Wunderground v.1.15,2013-01-02 14:30:00,
2013-01-02 09:32:00,43.9,42.3,30.07,ENE,76,4.0,5.0,94,0.00,,,0.07,Wunderground v.1.15,2013-01-02 14:32:00,
2013-01-02 09:34:00,43.9,42.0,30.07,ENE,63,3.0,5.0,93,0.00,,,0.07,Wunderground v.1.15,2013-01-02 14:34:00,
2013-01-02 09:35:00,44.0,42.1,30.07,NNE,32,2.0,5.0,93,0.00,,,0.07,Wunderground v.1.15,2013-01-02 14:35:00,
2013-01-02 09:37:00,44.1,42.2,30.08,NE,46,2.0,5.0,93,0.00,,,0.07,Wunderground v.1.15,2013-01-02 14:37:00,
2013-01-02 09:39:00,44.1,41.9,30.08,ENE,77,2.0,5.0,92,0.00,,,0.07,Wunderground v.1.15,2013-01-02 14:39:00,
2013-01-02 09:40:00,44.2,42.0,30.08,ENE,69,1.0,2.0,92,0.00,,,0.07,Wunderground v.1.15,2013-01-02 14:40:00,
2013-01-02 09:43:00,44.2,41.7,30.09,ENE,74,2.0,5.0,91,0.00,,,0.07,Wunderground v.1.15,2013-01-02 14:43:00,
2013-01-02 09:44:00,44.2,41.7,30.09,NE,53,1.0,5.0,91,0.00,,,0.07,Wunderground v.1.15,2013-01-02 14:44:00,
2013-01-02 09:45:00,44.2,41.5,30.09,NE,41,0.0,5.0,90,0.00,,,0.07,Wunderground v.1.15,2013-01-02 14:45:00,
2013-01-02 09:48:00,44.2,41.5,30.09,NNE,31,1.0,5.0,90,0.00,,,0.07,Wunderground v.1.15,2013-01-02 14:48:00,
2013-01-02 09:49:00,44.2,41.5,30.09,ENE,77,6.0,6.0,90,0.00,,,0.07,Wunderground v.1.15,2013-01-02 14:49:00,
2013-01-02 09:50:00,44.2,41.2,30.09,NE,42,1.0,2.0,89,0.00,,,0.07,Wunderground v.1.15,2013-01-02 14:50:00,
2013-01-02 09:53:00,44.4,41.7,30.09,East,81,1.0,4.0,90,0.00,,,0.07,Wunderground v.1.15,2013-01-02 14:53:00,
2013-01-02 09:54:00,44.4,41.7,30.09,East,81,1.0,4.0,90,0.00,,,0.07,Wunderground v.1.15,2013-01-02 14:54:00,
2013-01-02 09:55:00,44.4,41.7,30.09,East,81,1.0,4.0,90,0.00,,,0.07,Wunderground v.1.15,2013-01-02 14:55:00,
2013-01-02 09:59:00,44.4,40.8,30.09,NNE,27,2.0,4.0,87,0.00,,,0.07,Wunderground v.1.15,2013-01-02 14:59:00,
2013-01-02 10:00:00,44.4,40.8,30.09,NE,40,4.0,4.0,87,0.00,,,0.07,Wunderground v.1.15,2013-01-02 15:00:00,
2013-01-02 10:04:00,44.4,40.8,30.08,ENE,68,1.0,5.0,87,0.00,,,0.07,Wunderground v.1.15,2013-01-02 15:04:00,
2013-01-02 10:05:00,44.4,40.8,30.08,NNE,16,2.0,5.0,87,0.00,,,0.07,Wunderground v.1.15,2013-01-02 15:05:00,
2013-01-02 10:10:00,44.3,40.7,30.08,NNE,16,4.0,4.0,87,0.00,,,0.07,Wunderground v.1.15,2013-01-02 15:10:00,
2013-01-02 10:11:00,44.2,40.3,30.08,NE,49,1.0,4.0,86,0.00,,,0.07,Wunderground v.1.15,2013-01-02 15:11:00,
2013-01-02 10:15:00,44.2,40.6,30.08,ENE,78,1.0,4.0,87,0.00,,,0.07,Wunderground v.1.15,2013-01-02 15:15:00,
2013-01-02 10:16:00,44.3,40.7,30.08,ENE,76,1.0,4.0,87,0.00,,,0.07,Wunderground v.1.15,2013-01-02 15:16:00,
2013-01-02 10:20:00,44.3,40.7,30.09,NE,50,5.0,7.0,87,0.00,,,0.07,Wunderground v.1.15,2013-01-02 15:20:00,
2013-01-02 10:21:00,44.3,40.1,30.09,ENE,61,4.0,7.0,85,0.00,,,0.07,Wunderground v.1.15,2013-01-02 15:21:00,
2013-01-02 10:25:00,44.1,39.9,30.09,ENE,76,2.0,7.0,85,0.00,,,0.07,Wunderground v.1.15,2013-01-02 15:25:00,
2013-01-02 10:26:00,44.1,40.2,30.09,NE,47,0.0,7.0,86,0.00,,,0.07,Wunderground v.1.15,2013-01-02 15:26:00,
2013-01-02 10:30:00,44.1,40.2,30.10,ENE,68,4.0,6.0,86,0.00,,,0.07,Wunderground v.1.15,2013-01-02 15:30:00,
2013-01-02 10:31:00,44.0,39.8,30.09,NE,35,4.0,6.0,85,0.00,,,0.07,Wunderground v.1.15,2013-01-02 15:31:00,
2013-01-02 10:35:00,44.1,39.9,30.09,East,84,1.0,6.0,85,0.00,,,0.07,Wunderground v.1.15,2013-01-02 15:35:00,
2013-01-02 10:36:00,44.1,40.2,30.09,NE,55,0.0,6.0,86,0.00,,,0.07,Wunderground v.1.15,2013-01-02 15:36:00,
2013-01-02 10:40:00,44.2,39.7,30.09,NE,34,2.0,4.0,84,0.00,,,0.07,Wunderground v.1.15,2013-01-02 15:40:00,
2013-01-02 10:41:00,44.2,39.7,30.10,WNW,294,2.0,4.0,84,0.00,,,0.07,Wunderground v.1.15,2013-01-02 15:41:00,
2013-01-02 10:45:00,44.1,39.6,30.11,ENE,58,2.0,5.0,84,0.00,,,0.07,Wunderground v.1.15,2013-01-02 15:45:00,
2013-01-02 10:46:00,44.1,39.3,30.11,ENE,63,1.0,5.0,83,0.00,,,0.07,Wunderground v.1.15,2013-01-02 15:46:00,
2013-01-02 10:50:00,44.1,39.6,30.12,ENE,72,1.0,2.0,84,0.00,,,0.07,Wunderground v.1.15,2013-01-02 15:50:00,
2013-01-02 10:51:00,44.1,39.6,30.12,ENE,72,1.0,2.0,84,0.00,,,0.07,Wunderground v.1.15,2013-01-02 15:51:00,
2013-01-02 10:55:00,44.1,39.6,30.11,East,86,3.0,4.0,84,0.00,,,0.07,Wunderground v.1.15,2013-01-02 15:55:00,
2013-01-02 10:56:00,44.1,39.6,30.11,ENE,71,3.0,4.0,84,0.00,,,0.07,Wunderground v.1.15,2013-01-02 15:56:00,
2013-01-02 11:01:00,44.2,39.7,30.10,East,89,1.0,2.0,84,0.00,,,0.07,Wunderground v.1.15,2013-01-02 16:01:00,
2013-01-02 11:02:00,44.3,39.8,30.10,ENE,72,2.0,2.0,84,0.00,,,0.07,Wunderground v.1.15,2013-01-02 16:02:00,
2013-01-02 11:06:00,44.4,39.6,30.10,NE,41,2.0,4.0,83,0.00,,,0.07,Wunderground v.1.15,2013-01-02 16:06:00,
2013-01-02 11:07:00,44.4,39.6,30.10,NE,55,1.0,4.0,83,0.00,,,0.07,Wunderground v.1.15,2013-01-02 16:07:00,
2013-01-02 11:11:00,44.6,40.1,30.10,ENE,68,1.0,3.0,84,0.00,,,0.07,Wunderground v.1.15,2013-01-02 16:11:00,
2013-01-02 11:12:00,44.6,40.4,30.09,ENE,68,0.0,3.0,85,0.00,,,0.07,Wunderground v.1.15,2013-01-02 16:12:00,
2013-01-02 11:16:00,44.7,39.9,30.09,ENE,72,2.0,3.0,83,0.00,,,0.07,Wunderground v.1.15,2013-01-02 16:16:00,
2013-01-02 11:17:00,44.7,39.9,30.09,ENE,72,0.0,3.0,83,0.00,,,0.07,Wunderground v.1.15,2013-01-02 16:17:00,
2013-01-02 11:21:00,44.8,40.6,30.10,ENE,72,1.0,1.0,85,0.00,,,0.07,Wunderground v.1.15,2013-01-02 16:21:00,
2013-01-02 11:22:00,44.8,40.6,30.10,ENE,74,1.0,1.0,85,0.00,,,0.07,Wunderground v.1.15,2013-01-02 16:22:00,
2013-01-02 11:26:00,44.9,39.7,30.09,East,89,3.0,3.0,82,0.00,,,0.07,Wunderground v.1.15,2013-01-02 16:26:00,
2013-01-02 11:27:00,44.8,39.6,30.09,East,83,1.0,3.0,82,0.00,,,0.07,Wunderground v.1.15,2013-01-02 16:27:00,
2013-01-02 11:31:00,44.7,39.5,30.09,NNE,14,0.0,2.0,82,0.00,,,0.07,Wunderground v.1.15,2013-01-02 16:31:00,
2013-01-02 11:32:00,44.7,39.5,30.09,NNE,14,0.0,2.0,82,0.00,,,0.07,Wunderground v.1.15,2013-01-02 16:32:00,
2013-01-02 11:36:00,44.8,40.0,30.09,East,90,1.0,2.0,83,0.00,,,0.07,Wunderground v.1.15,2013-01-02 16:36:00,
2013-01-02 11:37:00,44.8,40.0,30.09,East,91,1.0,2.0,83,0.00,,,0.07,Wunderground v.1.15,2013-01-02 16:37:00,
2013-01-02 11:38:00,44.7,39.9,30.09,East,90,1.0,2.0,83,0.00,,,0.07,Wunderground v.1.15,2013-01-02 16:38:00,
2013-01-02 11:42:00,44.7,39.9,30.09,East,79,1.0,1.0,83,0.00,,,0.07,Wunderground v.1.15,2013-01-02 16:42:00,
2013-01-02 11:43:00,44.7,40.2,30.09,East,79,0.0,1.0,84,0.00,,,0.07,Wunderground v.1.15,2013-01-02 16:43:00,
2013-01-02 11:47:00,44.7,39.9,30.08,East,82,2.0,2.0,83,0.00,,,0.07,Wunderground v.1.15,2013-01-02 16:47:00,
2013-01-02 11:48:00,44.8,40.0,30.08,East,85,1.0,3.0,83,0.00,,,0.07,Wunderground v.1.15,2013-01-02 16:48:00,
2013-01-02 11:52:00,44.9,40.0,30.08,East,82,2.0,2.0,83,0.00,,,0.07,Wunderground v.1.15,2013-01-02 16:52:00,
2013-01-02 11:53:00,44.9,39.7,30.08,East,82,1.0,2.0,82,0.00,,,0.07,Wunderground v.1.15,2013-01-02 16:53:00,
2013-01-02 11:57:00,45.0,39.8,30.08,ENE,71,1.0,2.0,82,0.00,,,0.07,Wunderground v.1.15,2013-01-02 16:57:00,
2013-01-02 11:58:00,45.0,39.8,30.07,NE,35,2.0,3.0,82,0.00,,,0.07,Wunderground v.1.15,2013-01-02 16:58:00,
2013-01-02 12:02:00,45.2,40.3,30.07,East,82,1.0,2.0,83,0.00,,,0.07,Wunderground v.1.15,2013-01-02 17:02:00,
2013-01-02 12:03:00,45.2,40.3,30.07,East,82,2.0,2.0,83,0.00,,,0.07,Wunderground v.1.15,2013-01-02 17:03:00,
2013-01-02 12:04:00,45.3,40.1,30.07,East,79,1.0,3.0,82,0.00,,,0.07,Wunderground v.1.15,2013-01-02 17:04:00,
2013-01-02 12:07:00,45.3,39.8,30.07,NNE,33,3.0,3.0,81,0.00,,,0.07,Wunderground v.1.15,2013-01-02 17:07:00,
2013-01-02 12:08:00,45.5,40.6,30.07,ENE,68,1.0,3.0,83,0.00,,,0.07,Wunderground v.1.15,2013-01-02 17:08:00,
2013-01-02 12:09:00,45.6,40.7,30.07,ENE,70,2.0,3.0,83,0.00,,,0.07,Wunderground v.1.15,2013-01-02 17:09:00,
2013-01-02 12:12:00,45.7,40.5,30.07,SSE,153,2.0,4.0,82,0.00,,,0.07,Wunderground v.1.15,2013-01-02 17:12:00,
2013-01-02 12:14:00,45.9,40.4,30.07,SSE,158,1.0,4.0,81,0.00,,,0.07,Wunderground v.1.15,2013-01-02 17:14:00,
2013-01-02 12:17:00,46.1,40.3,30.06,East,82,0.0,4.0,80,0.00,,,0.07,Wunderground v.1.15,2013-01-02 17:17:00,
2013-01-02 12:18:00,46.1,40.6,30.06,East,82,0.0,4.0,81,0.00,,,0.07,Wunderground v.1.15,2013-01-02 17:18:00,
2013-01-02 12:19:00,46.2,40.7,30.07,East,82,0.0,4.0,81,0.00,,,0.07,Wunderground v.1.15,2013-01-02 17:19:00,
2013-01-02 12:22:00,46.3,40.8,30.07,ESE,105,1.0,1.0,81,0.00,,,0.07,Wunderground v.1.15,2013-01-02 17:22:00,
2013-01-02 12:23:00,46.4,40.9,30.07,ESE,106,1.0,1.0,81,0.00,,,0.07,Wunderground v.1.15,2013-01-02 17:23:00,
2013-01-02 12:24:00,46.4,40.6,30.07,ENE,74,1.0,2.0,80,0.00,,,0.07,Wunderground v.1.15,2013-01-02 17:24:00,
2013-01-02 12:25:00,46.4,40.2,30.07,South,181,1.0,2.0,79,0.00,,,0.07,Wunderground v.1.15,2013-01-02 17:25:00,
2013-01-02 12:27:00,46.3,40.5,30.06,ENE,68,1.0,2.0,80,0.00,,,0.07,Wunderground v.1.15,2013-01-02 17:27:00,
2013-01-02 12:28:00,46.3,40.5,30.06,NE,46,0.0,2.0,80,0.00,,,0.07,Wunderground v.1.15,2013-01-02 17:28:00,
2013-01-02 12:30:00,46.3,40.5,30.06,NE,47,1.0,1.0,80,0.00,,,0.07,Wunderground v.1.15,2013-01-02 17:30:00,
2013-01-02 12:33:00,46.3,40.5,30.06,NE,34,3.0,4.0,80,0.00,,,0.07,Wunderground v.1.15,2013-01-02 17:33:00,
2013-01-02 12:35:00,46.3,40.1,30.06,NE,40,1.0,4.0,79,0.00,,,0.07,Wunderground v.1.15,2013-01-02 17:35:00,
2013-01-02 12:38:00,46.4,39.6,30.06,ENE,67,2.0,4.0,77,0.00,,,0.07,Wunderground v.1.15,2013-01-02 17:38:00,
2013-01-02 12:40:00,46.4,39.2,30.06,NNW,333,2.0,4.0,76,0.00,,,0.07,Wunderground v.1.15,2013-01-02 17:40:00,
2013-01-02 12:43:00,46.7,39.9,30.07,NE,41,2.0,4.0,77,0.00,,,0.07,Wunderground v.1.15,2013-01-02 17:43:00,
2013-01-02 12:45:00,46.8,39.3,30.07,ENE,60,4.0,4.0,75,0.00,,,0.07,Wunderground v.1.15,2013-01-02 17:45:00,
2013-01-02 12:48:00,46.8,39.3,30.06,ENE,63,2.0,4.0,75,0.00,,,0.07,Wunderground v.1.15,2013-01-02 17:48:00,
2013-01-02 12:50:00,46.9,39.4,30.06,NE,41,2.0,3.0,75,0.00,,,0.07,Wunderground v.1.15,2013-01-02 17:50:00,
2013-01-02 12:51:00,46.8,39.3,30.06,ENE,73,2.0,3.0,75,0.00,,,0.07,Wunderground v.1.15,2013-01-02 17:51:00,
2013-01-02 12:53:00,46.8,38.9,30.06,ENE,71,1.0,3.0,74,0.00,,,0.07,Wunderground v.1.15,2013-01-02 17:53:00,
2013-01-02 12:55:00,46.8,38.9,30.06,ENE,64,1.0,3.0,74,0.00,,,0.07,Wunderground v.1.15,2013-01-02 17:55:00,
2013-01-02 12:56:00,46.8,38.9,30.06,ENE,64,0.0,3.0,74,0.00,,,0.07,Wunderground v.1.15,2013-01-02 17:56:00,
2013-01-02 12:58:00,46.9,39.0,30.06,WNW,285,2.0,3.0,74,0.00,,,0.07,Wunderground v.1.15,2013-01-02 17:58:00,
2013-01-02 12:59:00,46.8,38.9,30.06,NW,315,1.0,3.0,74,0.00,,,0.07,Wunderground v.1.15,2013-01-02 17:59:00,
2013-01-02 13:01:00,46.9,38.7,30.06,NE,55,3.0,4.0,73,0.00,,,0.07,Wunderground v.1.15,2013-01-02 18:01:00,
2013-01-02 13:04:00,46.7,38.1,30.06,NW,325,0.0,4.0,72,0.00,,,0.07,Wunderground v.1.15,2013-01-02 18:04:00,
2013-01-02 13:06:00,46.8,38.6,30.06,NNE,20,1.0,4.0,73,0.00,,,0.07,Wunderground v.1.15,2013-01-02 18:06:00,
2013-01-02 13:09:00,46.9,39.0,30.06,ENE,65,0.0,4.0,74,0.00,,,0.07,Wunderground v.1.15,2013-01-02 18:09:00,
2013-01-02 13:11:00,46.9,38.3,30.06,NNE,31,0.0,3.0,72,0.00,,,0.07,Wunderground v.1.15,2013-01-02 18:11:00,
2013-01-02 13:14:00,47.0,38.8,30.06,NNW,330,0.0,3.0,73,0.00,,,0.07,Wunderground v.1.15,2013-01-02 18:14:00,
2013-01-02 13:16:00,47.0,39.1,30.06,ENE,64,3.0,3.0,74,0.00,,,0.07,Wunderground v.1.15,2013-01-02 18:16:00,
2013-01-02 13:19:00,47.1,38.9,30.05,West,273,1.0,3.0,73,0.00,,,0.07,Wunderground v.1.15,2013-01-02 18:19:00,
2013-01-02 13:21:00,47.1,39.2,30.05,NE,47,1.0,2.0,74,0.00,,,0.07,Wunderground v.1.15,2013-01-02 18:21:00,
2013-01-02 13:22:00,47.1,39.2,30.05,NE,47,1.0,2.0,74,0.00,,,0.07,Wunderground v.1.15,2013-01-02 18:22:00,
2013-01-02 13:24:00,47.1,38.9,30.05,East,94,1.0,2.0,73,0.00,,,0.07,Wunderground v.1.15,2013-01-02 18:24:00,
2013-01-02 13:26:00,47.2,38.6,30.05,NE,34,1.0,3.0,72,0.00,,,0.07,Wunderground v.1.15,2013-01-02 18:26:00,
2013-01-02 13:27:00,47.2,38.6,30.05,ENE,68,3.0,3.0,72,0.00,,,0.07,Wunderground v.1.15,2013-01-02 18:27:00,
2013-01-02 13:29:00,47.2,38.6,30.05,WNW,290,1.0,3.0,72,0.00,,,0.07,Wunderground v.1.15,2013-01-02 18:29:00,
2013-01-02 13:31:00,47.3,38.7,30.05,WNW,301,2.0,2.0,72,0.00,,,0.07,Wunderground v.1.15,2013-01-02 18:31:00,
2013-01-02 13:32:00,47.3,38.7,30.05,NE,50,3.0,3.0,72,0.00,,,0.07,Wunderground v.1.15,2013-01-02 18:32:00,
2013-01-02 13:34:00,47.4,39.2,30.04,ENE,74,1.0,3.0,73,0.00,,,0.07,Wunderground v.1.15,2013-01-02 18:34:00,
2013-01-02 13:35:00,47.4,39.2,30.04,ENE,74,1.0,3.0,73,0.00,,,0.07,Wunderground v.1.15,2013-01-02 18:35:00,
2013-01-02 13:36:00,47.4,38.5,30.04,ENE,65,0.0,4.0,71,0.00,,,0.07,Wunderground v.1.15,2013-01-02 18:36:00,
2013-01-02 13:37:00,47.4,38.8,30.04,NW,326,0.0,4.0,72,0.00,,,0.07,Wunderground v.1.15,2013-01-02 18:37:00,
2013-01-02 13:39:00,47.5,39.6,30.05,WNW,296,1.0,4.0,74,0.00,,,0.07,Wunderground v.1.15,2013-01-02 18:39:00,
2013-01-02 13:40:00,47.5,39.6,30.05,WNW,297,1.0,1.0,74,0.00,,,0.07,Wunderground v.1.15,2013-01-02 18:40:00,
2013-01-02 13:42:00,47.7,39.8,30.05,NE,51,1.0,1.0,74,0.00,,,0.07,Wunderground v.1.15,2013-01-02 18:42:00,
2013-01-02 13:45:00,47.9,39.3,30.05,NNW,347,1.0,1.0,72,0.00,,,0.07,Wunderground v.1.15,2013-01-02 18:45:00,
2013-01-02 13:47:00,48.0,39.4,30.05,ENE,69,1.0,4.0,72,0.00,,,0.07,Wunderground v.1.15,2013-01-02 18:47:00,
2013-01-02 13:50:00,47.9,38.6,30.04,NNE,20,0.0,1.0,70,0.00,,,0.07,Wunderground v.1.15,2013-01-02 18:50:00,
2013-01-02 13:52:00,47.8,38.5,30.04,WNW,301,2.0,4.0,70,0.00,,,0.07,Wunderground v.1.15,2013-01-02 18:52:00,
2013-01-02 13:55:00,47.7,38.4,30.04,ENE,62,2.0,4.0,70,0.00,,,0.07,Wunderground v.1.15,2013-01-02 18:55:00,
2013-01-02 13:57:00,47.7,38.4,30.04,NE,53,3.0,4.0,70,0.00,,,0.07,Wunderground v.1.15,2013-01-02 18:57:00,
2013-01-02 14:00:00,47.7,38.4,30.05,ENE,60,0.0,2.0,70,0.00,,,0.07,Wunderground v.1.15,2013-01-02 19:00:00,
2013-01-02 14:02:00,47.7,38.8,30.05,ENE,60,1.0,2.0,71,0.00,,,0.07,Wunderground v.1.15,2013-01-02 19:02:00,
2013-01-02 14:05:00,47.8,38.8,30.05,NE,44,3.0,3.0,71,0.00,,,0.07,Wunderground v.1.15,2013-01-02 19:05:00,
2013-01-02 14:06:00,47.9,38.6,30.05,NE,46,2.0,3.0,70,0.00,,,0.07,Wunderground v.1.15,2013-01-02 19:06:00,
2013-01-02 14:07:00,47.9,38.6,30.05,East,98,1.0,3.0,70,0.00,,,0.07,Wunderground v.1.15,2013-01-02 19:07:00,
2013-01-02 14:10:00,48.0,38.7,30.05,SSE,148,1.0,2.0,70,0.00,,,0.07,Wunderground v.1.15,2013-01-02 19:10:00,
2013-01-02 14:11:00,48.0,38.7,30.05,SE,146,0.0,2.0,70,0.00,,,0.07,Wunderground v.1.15,2013-01-02 19:11:00,
2013-01-02 14:12:00,48.1,38.8,30.05,East,83,1.0,2.0,70,0.00,,,0.07,Wunderground v.1.15,2013-01-02 19:12:00,
2013-01-02 14:15:00,48.0,38.7,30.05,SE,143,1.0,2.0,70,0.00,,,0.07,Wunderground v.1.15,2013-01-02 19:15:00,
2013-01-02 14:16:00,48.1,38.8,30.05,SE,144,1.0,2.0,70,0.00,,,0.07,Wunderground v.1.15,2013-01-02 19:16:00,
2013-01-02 14:17:00,48.1,39.1,30.05,ENE,67,1.0,2.0,71,0.00,,,0.07,Wunderground v.1.15,2013-01-02 19:17:00,
2013-01-02 14:18:00,48.1,39.1,30.05,ENE,67,1.0,2.0,71,0.00,,,0.07,Wunderground v.1.15,2013-01-02 19:18:00,
2013-01-02 14:20:00,48.1,38.8,30.06,East,99,1.0,2.0,70,0.00,,,0.07,Wunderground v.1.15,2013-01-02 19:20:00,
2013-01-02 14:21:00,48.1,38.4,30.06,East,93,0.0,2.0,69,0.00,,,0.07,Wunderground v.1.15,2013-01-02 19:21:00,
2013-01-02 14:23:00,48.1,38.4,30.05,East,85,0.0,2.0,69,0.00,,,0.07,Wunderground v.1.15,2013-01-02 19:23:00,
2013-01-02 14:25:00,48.1,38.0,30.06,East,86,0.0,2.0,68,0.00,,,0.07,Wunderground v.1.15,2013-01-02 19:25:00,
2013-01-02 14:26:00,48.1,38.0,30.06,East,86,0.0,2.0,68,0.00,,,0.07,Wunderground v.1.15,2013-01-02 19:26:00,
2013-01-02 14:28:00,48.1,38.4,30.05,East,85,1.0,2.0,69,0.00,,,0.07,Wunderground v.1.15,2013-01-02 19:28:00,
2013-01-02 14:30:00,48.1,38.8,30.05,ESE,105,1.0,1.0,70,0.00,,,0.07,Wunderground v.1.15,2013-01-02 19:30:00,
2013-01-02 14:31:00,48.1,38.8,30.05,SSW,210,1.0,2.0,70,0.00,,,0.07,Wunderground v.1.15,2013-01-02 19:31:00,
2013-01-02 14:33:00,48.1,38.4,30.05,East,99,1.0,2.0,69,0.00,,,0.07,Wunderground v.1.15,2013-01-02 19:33:00,
2013-01-02 14:35:00,48.0,38.7,30.04,East,82,2.0,2.0,70,0.00,,,0.07,Wunderground v.1.15,2013-01-02 19:35:00,
2013-01-02 14:36:00,48.0,38.7,30.04,East,82,1.0,2.0,70,0.00,,,0.07,Wunderground v.1.15,2013-01-02 19:36:00,
2013-01-02 14:38:00,48.0,38.3,30.04,ENE,65,1.0,2.0,69,0.00,,,0.07,Wunderground v.1.15,2013-01-02 19:38:00,
2013-01-02 14:41:00,48.0,39.0,30.04,ENE,63,0.0,2.0,71,0.00,,,0.07,Wunderground v.1.15,2013-01-02 19:41:00,
2013-01-02 14:43:00,48.0,38.3,30.05,NE,47,1.0,3.0,69,0.00,,,0.07,Wunderground v.1.15,2013-01-02 19:43:00,
2013-01-02 14:46:00,48.0,38.7,30.05,East,79,1.0,3.0,70,0.00,,,0.07,Wunderground v.1.15,2013-01-02 19:46:00,
2013-01-02 14:48:00,48.0,38.3,30.05,East,80,0.0,3.0,69,0.00,,,0.07,Wunderground v.1.15,2013-01-02 19:48:00,
2013-01-02 14:51:00,48.1,38.0,30.06,NW,308,0.0,2.0,68,0.00,,,0.07,Wunderground v.1.15,2013-01-02 19:51:00,
2013-01-02 14:53:00,48.1,38.0,30.05,NNE,20,0.0,2.0,68,0.00,,,0.07,Wunderground v.1.15,2013-01-02 19:53:00,
2013-01-02 14:56:00,48.1,38.4,30.05,NNE,20,1.0,2.0,69,0.00,,,0.07,Wunderground v.1.15,2013-01-02 19:56:00,
2013-01-02 14:58:00,48.1,38.8,30.06,NNE,20,1.0,2.0,70,0.00,,,0.07,Wunderground v.1.15,2013-01-02 19:58:00,
2013-01-02 14:59:00,48.1,38.8,30.06,NNE,20,1.0,2.0,70,0.00,,,0.07,Wunderground v.1.15,2013-01-02 19:59:00,
2013-01-02 15:01:00,48.0,37.9,30.06,NNE,20,0.0,1.0,68,0.00,,,0.07,Wunderground v.1.15,2013-01-02 20:01:00,
2013-01-02 15:02:00,48.0,37.9,30.06,NNE,20,0.0,1.0,68,0.00,,,0.07,Wunderground v.1.15,2013-01-02 20:02:00,
2013-01-02 15:04:00,47.9,38.2,30.06,NNE,20,0.0,1.0,69,0.00,,,0.07,Wunderground v.1.15,2013-01-02 20:04:00,
2013-01-02 15:06:00,47.9,38.2,30.07,ENE,61,0.0,1.0,69,0.00,,,0.07,Wunderground v.1.15,2013-01-02 20:06:00,
2013-01-02 15:07:00,47.9,38.2,30.07,ENE,60,1.0,1.0,69,0.00,,,0.07,Wunderground v.1.15,2013-01-02 20:07:00,
2013-01-02 15:09:00,47.9,38.2,30.07,ENE,61,0.0,1.0,69,0.00,,,0.07,Wunderground v.1.15,2013-01-02 20:09:00,
2013-01-02 15:12:00,47.9,38.6,30.06,NE,53,0.0,2.0,70,0.00,,,0.07,Wunderground v.1.15,2013-01-02 20:12:00,
2013-01-02 15:14:00,47.8,38.1,30.05,East,87,1.0,2.0,69,0.00,,,0.07,Wunderground v.1.15,2013-01-02 20:14:00,
2013-01-02 15:17:00,47.8,38.5,30.06,NNE,22,1.0,2.0,70,0.00,,,0.07,Wunderground v.1.15,2013-01-02 20:17:00,
2013-01-02 15:19:00,47.7,38.0,30.06,NE,34,1.0,4.0,69,0.00,,,0.07,Wunderground v.1.15,2013-01-02 20:19:00,
2013-01-02 15:22:00,47.7,38.4,30.06,NE,53,0.0,1.0,70,0.00,,,0.07,Wunderground v.1.15,2013-01-02 20:22:00,
2013-01-02 15:24:00,47.7,38.0,30.06,NE,53,0.0,1.0,69,0.00,,,0.07,Wunderground v.1.15,2013-01-02 20:24:00,
2013-01-02 15:27:00,47.7,38.0,30.06,ENE,77,1.0,2.0,69,0.00,,,0.07,Wunderground v.1.15,2013-01-02 20:27:00,
2013-01-02 15:29:00,47.7,38.0,30.07,ENE,77,1.0,2.0,69,0.00,,,0.07,Wunderground v.1.15,2013-01-02 20:29:00,
2013-01-02 15:30:00,47.6,37.9,30.07,ENE,76,0.0,1.0,69,0.00,,,0.07,Wunderground v.1.15,2013-01-02 20:30:00,
2013-01-02 15:32:00,47.7,38.4,30.07,ENE,77,1.0,1.0,70,0.00,,,0.07,Wunderground v.1.15,2013-01-02 20:32:00,
2013-01-02 15:33:00,47.7,38.0,30.07,ENE,76,0.0,1.0,69,0.00,,,0.07,Wunderground v.1.15,2013-01-02 20:33:00,
2013-01-02 15:34:00,47.7,37.7,30.07,ENE,76,1.0,1.0,68,0.00,,,0.07,Wunderground v.1.15,2013-01-02 20:34:00,
2013-01-02 15:35:00,47.6,37.9,30.07,ENE,75,2.0,2.0,69,0.00,,,0.07,Wunderground v.1.15,2013-01-02 20:35:00,
2013-01-02 15:37:00,47.6,37.9,30.07,ENE,77,1.0,2.0,69,0.00,,,0.07,Wunderground v.1.15,2013-01-02 20:37:00,
2013-01-02 15:38:00,47.7,37.7,30.07,ENE,76,0.0,2.0,68,0.00,,,0.07,Wunderground v.1.15,2013-01-02 20:38:00,
2013-01-02 15:40:00,47.7,38.0,30.07,ENE,76,0.0,1.0,69,0.00,,,0.07,Wunderground v.1.15,2013-01-02 20:40:00,
2013-01-02 15:41:00,47.7,38.0,30.07,ENE,77,0.0,1.0,69,0.00,,,0.07,Wunderground v.1.15,2013-01-02 20:41:00,
2013-01-02 15:42:00,47.7,38.0,30.07,East,84,0.0,1.0,69,0.00,,,0.07,Wunderground v.1.15,2013-01-02 20:42:00,
2013-01-02 15:43:00,47.7,38.0,30.07,ENE,70,0.0,1.0,69,0.00,,,0.07,Wunderground v.1.15,2013-01-02 20:43:00,
2013-01-02 15:45:00,47.7,38.0,30.07,East,79,1.0,2.0,69,0.00,,,0.07,Wunderground v.1.15,2013-01-02 20:45:00,
2013-01-02 15:46:00,47.7,38.4,30.07,ENE,77,0.0,2.0,70,0.00,,,0.07,Wunderground v.1.15,2013-01-02 20:46:00,
2013-01-02 15:47:00,47.7,38.0,30.07,East,81,2.0,2.0,69,0.00,,,0.07,Wunderground v.1.15,2013-01-02 20:47:00,
2013-01-02 15:48:00,47.7,37.7,30.07,ENE,73,1.0,2.0,68,0.00,,,0.07,Wunderground v.1.15,2013-01-02 20:48:00,
2013-01-02 15:50:00,47.6,37.6,30.07,East,86,1.0,2.0,68,0.00,,,0.07,Wunderground v.1.15,2013-01-02 20:50:00,
2013-01-02 15:51:00,47.5,37.5,30.07,East,86,0.0,2.0,68,0.00,,,0.07,Wunderground v.1.15,2013-01-02 20:51:00,
2013-01-02 15:52:00,47.5,37.5,30.07,East,86,0.0,2.0,68,0.00,,,0.07,Wunderground v.1.15,2013-01-02 20:52:00,
2013-01-02 15:53:00,47.5,37.8,30.07,East,86,0.0,2.0,69,0.00,,,0.07,Wunderground v.1.15,2013-01-02 20:53:00,
2013-01-02 15:55:00,47.5,37.8,30.07,East,86,0.0,2.0,69,0.00,,,0.07,Wunderground v.1.15,2013-01-02 20:55:00,
2013-01-02 15:56:00,47.5,38.2,30.07,East,86,0.0,2.0,70,0.00,,,0.07,Wunderground v.1.15,2013-01-02 20:56:00,
2013-01-02 15:57:00,47.4,37.7,30.07,East,86,1.0,2.0,69,0.00,,,0.07,Wunderground v.1.15,2013-01-02 20:57:00,
2013-01-02 15:58:00,47.4,37.4,30.07,East,86,0.0,2.0,68,0.00,,,0.07,Wunderground v.1.15,2013-01-02 20:58:00,
2013-01-02 16:00:00,47.4,38.5,30.07,East,86,0.0,0.0,71,0.00,,,0.07,Wunderground v.1.15,2013-01-02 21:00:00,
2013-01-02 16:01:00,47.4,38.5,30.07,East,86,0.0,0.0,71,0.00,,,0.07,Wunderground v.1.15,2013-01-02 21:01:00,
2013-01-02 16:02:00,47.4,37.7,30.07,East,86,0.0,0.0,69,0.00,,,0.07,Wunderground v.1.15,2013-01-02 21:02:00,
2013-01-02 16:03:00,47.4,37.7,30.07,East,86,0.0,0.0,69,0.00,,,0.07,Wunderground v.1.15,2013-01-02 21:03:00,
2013-01-02 16:05:00,47.3,38.0,30.07,East,86,0.0,0.0,70,0.00,,,0.07,Wunderground v.1.15,2013-01-02 21:05:00,
2013-01-02 16:06:00,47.3,38.0,30.07,East,86,0.0,0.0,70,0.00,,,0.07,Wunderground v.1.15,2013-01-02 21:06:00,
2013-01-02 16:07:00,47.3,38.0,30.07,East,86,0.0,0.0,70,0.00,,,0.07,Wunderground v.1.15,2013-01-02 21:07:00,
2013-01-02 16:08:00,47.3,38.7,30.07,East,86,0.0,0.0,72,0.00,,,0.07,Wunderground v.1.15,2013-01-02 21:08:00,
2013-01-02 16:10:00,47.1,38.5,30.07,East,86,0.0,0.0,72,0.00,,,0.07,Wunderground v.1.15,2013-01-02 21:10:00,
2013-01-02 16:11:00,47.1,37.8,30.07,East,86,0.0,0.0,70,0.00,,,0.07,Wunderground v.1.15,2013-01-02 21:11:00,
2013-01-02 16:12:00,47.1,37.8,30.08,East,86,0.0,0.0,70,0.00,,,0.07,Wunderground v.1.15,2013-01-02 21:12:00,
2013-01-02 16:13:00,47.0,37.7,30.08,East,86,0.0,0.0,70,0.00,,,0.07,Wunderground v.1.15,2013-01-02 21:13:00,
2013-01-02 16:16:00,47.0,37.7,30.08,East,86,0.0,0.0,70,0.00,,,0.07,Wunderground v.1.15,2013-01-02 21:16:00,
2013-01-02 16:17:00,47.0,37.4,30.08,East,86,0.0,1.0,69,0.00,,,0.07,Wunderground v.1.15,2013-01-02 21:17:00,
2013-01-02 16:18:00,46.9,37.3,30.08,East,86,0.0,1.0,69,0.00,,,0.07,Wunderground v.1.15,2013-01-02 21:18:00,
2013-01-02 16:19:00,46.9,37.6,30.08,East,86,0.0,1.0,70,0.00,,,0.07,Wunderground v.1.15,2013-01-02 21:19:00,
2013-01-02 16:21:00,46.9,37.6,30.08,East,86,0.0,1.0,70,0.00,,,0.07,Wunderground v.1.15,2013-01-02 21:21:00,
2013-01-02 16:22:00,46.9,37.6,30.08,East,86,0.0,1.0,70,0.00,,,0.07,Wunderground v.1.15,2013-01-02 21:22:00,
2013-01-02 16:23:00,46.8,37.2,30.08,East,86,0.0,1.0,69,0.00,,,0.07,Wunderground v.1.15,2013-01-02 21:23:00,
2013-01-02 16:24:00,46.8,37.5,30.08,East,86,0.0,1.0,70,0.00,,,0.07,Wunderground v.1.15,2013-01-02 21:24:00,
2013-01-02 16:26:00,46.8,37.9,30.08,East,86,0.0,1.0,71,0.00,,,0.07,Wunderground v.1.15,2013-01-02 21:26:00,
2013-01-02 16:27:00,46.7,37.8,30.08,East,86,0.0,1.0,71,0.00,,,0.07,Wunderground v.1.15,2013-01-02 21:27:00,
2013-01-02 16:28:00,46.7,38.1,30.08,East,86,0.0,1.0,72,0.00,,,0.07,Wunderground v.1.15,2013-01-02 21:28:00,
2013-01-02 16:30:00,46.6,37.7,30.08,East,86,0.0,0.0,71,0.00,,,0.07,Wunderground v.1.15,2013-01-02 21:30:00,
2013-01-02 16:31:00,46.6,37.7,30.08,East,86,0.0,1.0,71,0.00,,,0.07,Wunderground v.1.15,2013-01-02 21:31:00,
2013-01-02 16:32:00,46.6,38.4,30.08,East,86,0.0,1.0,73,0.00,,,0.07,Wunderground v.1.15,2013-01-02 21:32:00,
2013-01-02 16:33:00,46.5,38.0,30.08,East,86,0.0,1.0,72,0.00,,,0.07,Wunderground v.1.15,2013-01-02 21:33:00,
2013-01-02 16:35:00,46.5,38.7,30.08,East,86,0.0,1.0,74,0.00,,,0.07,Wunderground v.1.15,2013-01-02 21:35:00,
2013-01-02 16:36:00,46.5,39.0,30.08,East,86,0.0,1.0,75,0.00,,,0.07,Wunderground v.1.15,2013-01-02 21:36:00,
2013-01-02 16:37:00,46.4,38.6,30.08,East,86,0.0,1.0,74,0.00,,,0.07,Wunderground v.1.15,2013-01-02 21:37:00,
2013-01-02 16:38:00,46.3,38.1,30.08,East,86,0.0,1.0,73,0.00,,,0.07,Wunderground v.1.15,2013-01-02 21:38:00,
2013-01-02 16:40:00,46.2,38.0,30.08,East,86,1.0,1.0,73,0.00,,,0.07,Wunderground v.1.15,2013-01-02 21:40:00,
2013-01-02 16:41:00,46.3,38.8,30.08,East,86,0.0,1.0,75,0.00,,,0.07,Wunderground v.1.15,2013-01-02 21:41:00,
2013-01-02 16:42:00,46.1,37.9,30.07,East,86,1.0,2.0,73,0.00,,,0.07,Wunderground v.1.15,2013-01-02 21:42:00,
2013-01-02 16:43:00,46.1,37.6,30.07,East,86,0.0,2.0,72,0.00,,,0.07,Wunderground v.1.15,2013-01-02 21:43:00,
2013-01-02 16:45:00,46.1,38.3,30.07,East,86,1.0,2.0,74,0.00,,,0.07,Wunderground v.1.15,2013-01-02 21:45:00,
2013-01-02 16:46:00,46.1,38.3,30.08,East,86,0.0,2.0,74,0.00,,,0.07,Wunderground v.1.15,2013-01-02 21:46:00,
2013-01-02 16:47:00,46.0,38.2,30.08,East,86,1.0,2.0,74,0.00,,,0.07,Wunderground v.1.15,2013-01-02 21:47:00,
2013-01-02 16:48:00,46.0,38.2,30.07,ENE,76,1.0,2.0,74,0.00,,,0.07,Wunderground v.1.15,2013-01-02 21:48:00,
2013-01-02 16:50:00,45.9,38.1,30.07,ENE,76,0.0,1.0,74,0.00,,,0.07,Wunderground v.1.15,2013-01-02 21:50:00,
2013-01-02 16:51:00,45.9,38.4,30.07,ENE,76,1.0,1.0,75,0.00,,,0.07,Wunderground v.1.15,2013-01-02 21:51:00,
2013-01-02 16:52:00,45.9,37.7,30.07,ENE,76,1.0,1.0,73,0.00,,,0.07,Wunderground v.1.15,2013-01-02 21:52:00,
2013-01-02 16:53:00,45.9,37.7,30.07,ENE,76,0.0,1.0,73,0.00,,,0.07,Wunderground v.1.15,2013-01-02 21:53:00,
2013-01-02 16:55:00,45.8,37.6,30.07,ENE,77,1.0,1.0,73,0.00,,,0.07,Wunderground v.1.15,2013-01-02 21:55:00,
2013-01-02 16:56:00,45.8,38.0,30.07,ENE,76,0.0,1.0,74,0.00,,,0.07,Wunderground v.1.15,2013-01-02 21:56:00,
2013-01-02 16:57:00,45.7,37.9,30.08,ENE,77,0.0,1.0,74,0.00,,,0.07,Wunderground v.1.15,2013-01-02 21:57:00,
2013-01-02 16:59:00,45.7,38.2,30.08,ENE,77,0.0,1.0,75,0.00,,,0.07,Wunderground v.1.15,2013-01-02 21:59:00,
2013-01-02 17:00:00,45.6,38.1,30.08,ENE,76,0.0,1.0,75,0.00,,,0.07,Wunderground v.1.15,2013-01-02 22:00:00,
2013-01-02 17:01:00,45.6,38.1,30.08,ENE,77,0.0,1.0,75,0.00,,,0.07,Wunderground v.1.15,2013-01-02 22:01:00,
2013-01-02 17:02:00,45.5,37.7,30.08,ENE,76,0.0,1.0,74,0.00,,,0.07,Wunderground v.1.15,2013-01-02 22:02:00,
2013-01-02 17:04:00,45.5,37.7,30.08,ENE,76,0.0,1.0,74,0.00,,,0.07,Wunderground v.1.15,2013-01-02 22:04:00,
2013-01-02 17:05:00,45.4,37.6,30.08,ENE,76,0.0,1.0,74,0.00,,,0.07,Wunderground v.1.15,2013-01-02 22:05:00,
2013-01-02 17:06:00,45.4,37.6,30.08,East,79,1.0,1.0,74,0.00,,,0.07,Wunderground v.1.15,2013-01-02 22:06:00,
2013-01-02 17:07:00,45.3,37.2,30.08,East,79,0.0,1.0,73,0.00,,,0.07,Wunderground v.1.15,2013-01-02 22:07:00,
2013-01-02 17:09:00,45.3,37.5,30.08,East,79,0.0,1.0,74,0.00,,,0.07,Wunderground v.1.15,2013-01-02 22:09:00,
2013-01-02 17:11:00,45.3,37.5,30.09,East,79,0.0,0.0,74,0.00,,,0.07,Wunderground v.1.15,2013-01-02 22:11:00,
2013-01-02 17:13:00,45.3,38.2,30.09,East,79,0.0,1.0,76,0.00,,,0.07,Wunderground v.1.15,2013-01-02 22:13:00,
2013-01-02 17:14:00,45.1,38.0,30.08,East,79,0.0,1.0,76,0.00,,,0.07,Wunderground v.1.15,2013-01-02 22:14:00,
2013-01-02 17:16:00,45.1,38.3,30.08,East,79,0.0,1.0,77,0.00,,,0.07,Wunderground v.1.15,2013-01-02 22:16:00,
2013-01-02 17:18:00,45.0,37.6,30.08,East,79,0.0,1.0,75,0.00,,,0.07,Wunderground v.1.15,2013-01-02 22:18:00,
2013-01-02 17:19:00,44.9,37.8,30.09,East,79,0.0,1.0,76,0.00,,,0.07,Wunderground v.1.15,2013-01-02 22:19:00,
2013-01-02 17:21:00,44.8,37.7,30.09,East,79,0.0,0.0,76,0.00,,,0.07,Wunderground v.1.15,2013-01-02 22:21:00,
2013-01-02 17:23:00,44.7,37.6,30.09,East,79,0.0,0.0,76,0.00,,,0.07,Wunderground v.1.15,2013-01-02 22:23:00,
2013-01-02 17:24:00,44.6,37.5,30.08,East,79,1.0,1.0,76,0.00,,,0.07,Wunderground v.1.15,2013-01-02 22:24:00,
2013-01-02 17:26:00,44.6,37.8,30.08,East,79,1.0,1.0,77,0.00,,,0.07,Wunderground v.1.15,2013-01-02 22:26:00,
2013-01-02 17:28:00,44.5,37.4,30.08,East,79,0.0,1.0,76,0.00,,,0.07,Wunderground v.1.15,2013-01-02 22:28:00,
2013-01-02 17:29:00,44.4,37.3,30.08,East,79,0.0,1.0,76,0.00,,,0.07,Wunderground v.1.15,2013-01-02 22:29:00,
2013-01-02 17:31:00,44.4,37.0,30.09,East,79,0.0,0.0,75,0.00,,,0.07,Wunderground v.1.15,2013-01-02 22:31:00,
2013-01-02 17:32:00,44.4,37.0,30.09,East,79,0.0,0.0,75,0.00,,,0.07,Wunderground v.1.15,2013-01-02 22:32:00,
2013-01-02 17:34:00,44.3,36.9,30.09,East,79,0.0,0.0,75,0.00,,,0.07,Wunderground v.1.15,2013-01-02 22:34:00,
2013-01-02 17:36:00,44.3,36.9,30.09,East,79,1.0,1.0,75,0.00,,,0.07,Wunderground v.1.15,2013-01-02 22:36:00,
2013-01-02 17:37:00,44.3,36.9,30.09,ENE,74,1.0,1.0,75,0.00,,,0.07,Wunderground v.1.15,2013-01-02 22:37:00,
2013-01-02 17:39:00,44.3,36.5,30.09,ENE,74,0.0,1.0,74,0.00,,,0.07,Wunderground v.1.15,2013-01-02 22:39:00,
2013-01-02 17:40:00,44.3,36.9,30.09,ENE,74,0.0,0.0,75,0.00,,,0.07,Wunderground v.1.15,2013-01-02 22:40:00,
2013-01-02 17:41:00,44.3,36.9,30.09,ENE,74,0.0,1.0,75,0.00,,,0.07,Wunderground v.1.15,2013-01-02 22:41:00,
2013-01-02 17:42:00,44.3,36.9,30.09,ENE,73,1.0,1.0,75,0.00,,,0.07,Wunderground v.1.15,2013-01-02 22:42:00,
2013-01-02 17:44:00,44.3,36.9,30.09,ENE,74,1.0,1.0,75,0.00,,,0.07,Wunderground v.1.15,2013-01-02 22:44:00,
2013-01-02 17:45:00,44.3,36.5,30.08,ENE,74,1.0,1.0,74,0.00,,,0.07,Wunderground v.1.15,2013-01-02 22:45:00,
2013-01-02 17:46:00,44.3,36.5,30.08,ENE,74,1.0,1.0,74,0.00,,,0.07,Wunderground v.1.15,2013-01-02 22:46:00,
2013-01-02 17:47:00,44.2,36.4,30.08,ENE,73,1.0,1.0,74,0.00,,,0.07,Wunderground v.1.15,2013-01-02 22:47:00,
2013-01-02 17:49:00,44.2,37.1,30.09,ENE,74,0.0,1.0,76,0.00,,,0.07,Wunderground v.1.15,2013-01-02 22:49:00,
2013-01-02 17:50:00,44.2,37.1,30.09,ENE,74,0.0,0.0,76,0.00,,,0.07,Wunderground v.1.15,2013-01-02 22:50:00,
2013-01-02 17:51:00,44.1,37.0,30.09,ENE,74,0.0,0.0,76,0.00,,,0.07,Wunderground v.1.15,2013-01-02 22:51:00,
2013-01-02 17:52:00,44.1,37.0,30.09,ENE,74,0.0,0.0,76,0.00,,,0.07,Wunderground v.1.15,2013-01-02 22:52:00,
2013-01-02 17:54:00,43.9,37.2,30.09,ENE,74,0.0,0.0,77,0.00,,,0.07,Wunderground v.1.15,2013-01-02 22:54:00,
2013-01-02 17:56:00,43.8,37.4,30.10,ENE,74,0.0,0.0,78,0.00,,,0.07,Wunderground v.1.15,2013-01-02 22:56:00,
2013-01-02 17:57:00,43.7,37.3,30.11,ENE,74,0.0,0.0,78,0.00,,,0.07,Wunderground v.1.15,2013-01-02 22:57:00,
2013-01-02 18:00:00,43.5,36.8,30.11,ENE,74,0.0,0.0,77,0.00,,,0.07,Wunderground v.1.15,2013-01-02 23:00:00,
2013-01-02 18:01:00,43.5,36.4,30.11,ENE,74,0.0,1.0,76,0.00,,,0.07,Wunderground v.1.15,2013-01-02 23:01:00,
2013-01-02 18:03:00,43.4,36.3,30.11,ENE,74,0.0,1.0,76,0.00,,,0.07,Wunderground v.1.15,2013-01-02 23:03:00,
2013-01-02 18:05:00,43.4,37.3,30.10,East,84,1.0,1.0,79,0.00,,,0.07,Wunderground v.1.15,2013-01-02 23:05:00,
2013-01-02 18:06:00,43.4,36.7,30.10,East,84,1.0,1.0,77,0.00,,,0.07,Wunderground v.1.15,2013-01-02 23:06:00,
2013-01-02 18:07:00,43.4,36.7,30.10,East,84,0.0,1.0,77,0.00,,,0.07,Wunderground v.1.15,2013-01-02 23:07:00,
2013-01-02 18:08:00,43.4,36.7,30.10,East,83,0.0,1.0,77,0.00,,,0.07,Wunderground v.1.15,2013-01-02 23:08:00,
2013-01-02 18:10:00,43.4,36.3,30.10,East,84,0.0,0.0,76,0.00,,,0.07,Wunderground v.1.15,2013-01-02 23:10:00,
2013-01-02 18:11:00,43.4,36.3,30.10,East,85,0.0,1.0,76,0.00,,,0.07,Wunderground v.1.15,2013-01-02 23:11:00,
2013-01-02 18:12:00,43.4,36.0,30.10,East,84,1.0,1.0,75,0.00,,,0.07,Wunderground v.1.15,2013-01-02 23:12:00,
2013-01-02 18:13:00,43.4,36.0,30.10,East,85,0.0,1.0,75,0.00,,,0.07,Wunderground v.1.15,2013-01-02 23:13:00,
2013-01-02 18:15:00,43.5,36.1,30.10,East,84,0.0,1.0,75,0.00,,,0.07,Wunderground v.1.15,2013-01-02 23:15:00,
2013-01-02 18:17:00,43.6,36.5,30.10,East,85,0.0,1.0,76,0.00,,,0.07,Wunderground v.1.15,2013-01-02 23:17:00,
2013-01-02 18:18:00,43.6,36.5,30.10,ENE,67,0.0,1.0,76,0.00,,,0.07,Wunderground v.1.15,2013-01-02 23:18:00,
2013-01-02 18:20:00,43.6,36.5,30.10,ENE,67,0.0,0.0,76,0.00,,,0.07,Wunderground v.1.15,2013-01-02 23:20:00,
2013-01-02 18:22:00,43.5,36.8,30.10,ENE,67,0.0,0.0,77,0.00,,,0.07,Wunderground v.1.15,2013-01-02 23:22:00,
2013-01-02 18:23:00,43.5,37.1,30.11,ENE,67,0.0,0.0,78,0.00,,,0.07,Wunderground v.1.15,2013-01-02 23:23:00,
2013-01-02 18:25:00,43.5,37.1,30.11,ENE,67,0.0,0.0,78,0.00,,,0.07,Wunderground v.1.15,2013-01-02 23:25:00,
2013-01-02 18:27:00,43.4,36.3,30.11,ENE,67,1.0,1.0,76,0.00,,,0.07,Wunderground v.1.15,2013-01-02 23:27:00,
2013-01-02 18:28:00,43.4,36.3,30.11,ENE,68,1.0,1.0,76,0.00,,,0.07,Wunderground v.1.15,2013-01-02 23:28:00,
2013-01-02 18:30:00,43.4,36.7,30.11,ENE,68,0.0,1.0,77,0.00,,,0.07,Wunderground v.1.15,2013-01-02 23:30:00,
2013-01-02 18:32:00,43.4,36.3,30.12,ENE,68,0.0,1.0,76,0.00,,,0.07,Wunderground v.1.15,2013-01-02 23:32:00,
2013-01-02 18:34:00,43.4,36.3,30.12,ENE,65,0.0,1.0,76,0.00,,,0.07,Wunderground v.1.15,2013-01-02 23:34:00,
2013-01-02 18:35:00,43.4,36.3,30.12,ENE,65,0.0,1.0,76,0.00,,,0.07,Wunderground v.1.15,2013-01-02 23:35:00,
2013-01-02 18:37:00,43.4,36.7,30.12,ENE,65,0.0,1.0,77,0.00,,,0.07,Wunderground v.1.15,2013-01-02 23:37:00,
2013-01-02 18:39:00,43.4,36.7,30.13,ENE,65,0.0,1.0,77,0.00,,,0.07,Wunderground v.1.15,2013-01-02 23:39:00,
2013-01-02 18:40:00,43.4,36.3,30.13,ENE,65,0.0,0.0,76,0.00,,,0.07,Wunderground v.1.15,2013-01-02 23:40:00,
2013-01-02 18:42:00,43.4,37.0,30.13,ENE,65,0.0,0.0,78,0.00,,,0.07,Wunderground v.1.15,2013-01-02 23:42:00,
2013-01-02 18:45:00,43.4,36.7,30.13,ENE,65,0.0,0.0,77,0.00,,,0.07,Wunderground v.1.15,2013-01-02 23:45:00,
2013-01-02 18:47:00,43.4,36.7,30.13,ENE,65,0.0,0.0,77,0.00,,,0.07,Wunderground v.1.15,2013-01-02 23:47:00,
2013-01-02 18:48:00,43.3,36.6,30.13,ENE,65,0.0,0.0,77,0.00,,,0.07,Wunderground v.1.15,2013-01-02 23:48:00,
2013-01-02 18:50:00,43.3,37.2,30.14,ENE,65,0.0,0.0,79,0.00,,,0.07,Wunderground v.1.15,2013-01-02 23:50:00,
2013-01-02 18:52:00,43.3,36.6,30.13,NE,47,0.0,2.0,77,0.00,,,0.07,Wunderground v.1.15,2013-01-02 23:52:00,
2013-01-02 18:53:00,43.3,36.6,30.13,NE,47,0.0,2.0,77,0.00,,,0.07,Wunderground v.1.15,2013-01-02 23:53:00,
2013-01-02 18:55:00,43.3,36.6,30.13,NE,47,1.0,2.0,77,0.00,,,0.07,Wunderground v.1.15,2013-01-02 23:55:00,
2013-01-02 18:57:00,43.3,36.6,30.13,NE,47,0.0,2.0,77,0.00,,,0.07,Wunderground v.1.15,2013-01-02 23:57:00,
2013-01-02 18:58:00,43.3,36.6,30.13,NE,47,0.0,2.0,77,0.00,,,0.07,Wunderground v.1.15,2013-01-02 23:58:00,
2013-01-02 19:00:00,43.3,36.6,30.13,East,94,0.0,0.0,77,0.00,,,0.07,Wunderground v.1.15,2013-01-03 00:00:00,
2013-01-02 19:01:00,43.3,36.6,30.12,SSE,155,2.0,2.0,77,0.00,,,0.07,Wunderground v.1.15,2013-01-03 00:01:00,
2013-01-02 19:02:00,43.2,35.8,30.13,SSE,165,0.0,2.0,75,0.00,,,0.07,Wunderground v.1.15,2013-01-03 00:02:00,
2013-01-02 19:03:00,43.3,35.9,30.13,SSE,165,0.0,2.0,75,0.00,,,0.07,Wunderground v.1.15,2013-01-03 00:03:00,
2013-01-02 19:05:00,43.2,35.8,30.13,SSE,165,0.0,2.0,75,0.00,,,0.07,Wunderground v.1.15,2013-01-03 00:05:00,
2013-01-02 19:06:00,43.3,35.9,30.13,SSE,165,0.0,2.0,75,0.00,,,0.07,Wunderground v.1.15,2013-01-03 00:06:00,
2013-01-02 19:07:00,43.2,36.1,30.13,East,96,1.0,2.0,76,0.00,,,0.07,Wunderground v.1.15,2013-01-03 00:07:00,
2013-01-02 19:08:00,43.2,35.8,30.13,East,81,1.0,2.0,75,0.00,,,0.07,Wunderground v.1.15,2013-01-03 00:08:00,
2013-01-02 19:10:00,43.2,35.8,30.12,East,81,0.0,1.0,75,0.00,,,0.07,Wunderground v.1.15,2013-01-03 00:10:00,
2013-01-02 19:11:00,43.2,35.5,30.12,East,81,0.0,1.0,74,0.00,,,0.07,Wunderground v.1.15,2013-01-03 00:11:00,
2013-01-02 19:13:00,43.2,35.5,30.12,East,85,0.0,1.0,74,0.00,,,0.07,Wunderground v.1.15,2013-01-03 00:13:00,
2013-01-02 19:14:00,43.2,35.8,30.12,East,84,1.0,1.0,75,0.00,,,0.07,Wunderground v.1.15,2013-01-03 00:14:00,
2013-01-02 19:15:00,43.2,35.5,30.12,ENE,74,1.0,3.0,74,0.00,,,0.07,Wunderground v.1.15,2013-01-03 00:15:00,
2013-01-02 19:16:00,43.2,35.5,30.12,ENE,74,1.0,3.0,74,0.00,,,0.07,Wunderground v.1.15,2013-01-03 00:16:00,
2013-01-02 19:18:00,43.2,35.5,30.13,East,85,1.0,3.0,74,0.00,,,0.07,Wunderground v.1.15,2013-01-03 00:18:00,
2013-01-02 19:19:00,43.2,35.1,30.12,East,84,1.0,3.0,73,0.00,,,0.07,Wunderground v.1.15,2013-01-03 00:19:00,
2013-01-02 19:21:00,43.2,35.5,30.12,East,84,1.0,1.0,74,0.00,,,0.07,Wunderground v.1.15,2013-01-03 00:21:00,
2013-01-02 19:23:00,43.1,35.0,30.12,East,90,0.0,1.0,73,0.00,,,0.07,Wunderground v.1.15,2013-01-03 00:23:00,
2013-01-02 19:24:00,43.1,35.0,30.13,East,90,1.0,2.0,73,0.00,,,0.07,Wunderground v.1.15,2013-01-03 00:24:00,
2013-01-02 19:25:00,43.1,35.4,30.13,East,86,0.0,2.0,74,0.00,,,0.07,Wunderground v.1.15,2013-01-03 00:25:00,
2013-01-02 19:26:00,43.1,35.4,30.13,East,86,0.0,2.0,74,0.00,,,0.07,Wunderground v.1.15,2013-01-03 00:26:00,
2013-01-02 19:28:00,43.1,35.0,30.13,East,86,1.0,2.0,73,0.00,,,0.07,Wunderground v.1.15,2013-01-03 00:28:00,
2013-01-02 19:29:00,43.0,35.3,30.13,East,86,0.0,2.0,74,0.00,,,0.07,Wunderground v.1.15,2013-01-03 00:29:00,
2013-01-02 19:31:00,43.0,35.3,30.13,East,86,1.0,1.0,74,0.00,,,0.07,Wunderground v.1.15,2013-01-03 00:31:00,
2013-01-02 19:34:00,43.0,34.9,30.13,NE,56,0.0,2.0,73,0.00,,,0.07,Wunderground v.1.15,2013-01-03 00:34:00,
2013-01-02 19:35:00,43.0,34.9,30.13,ENE,57,0.0,2.0,73,0.00,,,0.07,Wunderground v.1.15,2013-01-03 00:35:00,
2013-01-02 19:37:00,43.0,35.3,30.13,ENE,58,1.0,2.0,74,0.00,,,0.07,Wunderground v.1.15,2013-01-03 00:37:00,
2013-01-02 19:39:00,43.0,34.9,30.13,East,96,0.0,2.0,73,0.00,,,0.07,Wunderground v.1.15,2013-01-03 00:39:00,
2013-01-02 19:40:00,43.0,34.9,30.13,East,96,0.0,1.0,73,0.00,,,0.07,Wunderground v.1.15,2013-01-03 00:40:00,
2013-01-02 19:42:00,42.9,34.8,30.13,ENE,63,0.0,3.0,73,0.00,,,0.07,Wunderground v.1.15,2013-01-03 00:42:00,
2013-01-02 19:45:00,42.9,34.8,30.13,ENE,71,1.0,3.0,73,0.00,,,0.07,Wunderground v.1.15,2013-01-03 00:45:00,
2013-01-02 19:47:00,42.9,35.2,30.13,ENE,71,0.0,3.0,74,0.00,,,0.07,Wunderground v.1.15,2013-01-03 00:47:00,
2013-01-02 19:50:00,42.9,35.2,30.12,ENE,70,1.0,1.0,74,0.00,,,0.07,Wunderground v.1.15,2013-01-03 00:50:00,
2013-01-02 19:52:00,42.8,35.1,30.13,WSW,245,1.0,1.0,74,0.00,,,0.07,Wunderground v.1.15,2013-01-03 00:52:00,
2013-01-02 19:55:00,42.7,34.6,30.13,East,84,2.0,2.0,73,0.00,,,0.07,Wunderground v.1.15,2013-01-03 00:55:00,
2013-01-02 19:57:00,42.7,35.0,30.13,East,84,1.0,2.0,74,0.00,,,0.07,Wunderground v.1.15,2013-01-03 00:57:00,
2013-01-02 20:00:00,42.7,35.0,30.13,East,79,0.0,2.0,74,0.00,,,0.07,Wunderground v.1.15,2013-01-03 01:00:00,
2013-01-02 20:01:00,42.7,34.6,30.13,East,79,0.0,2.0,73,0.00,,,0.07,Wunderground v.1.15,2013-01-03 01:01:00,
2013-01-02 20:02:00,42.7,34.6,30.13,East,79,1.0,2.0,73,0.00,,,0.07,Wunderground v.1.15,2013-01-03 01:02:00,
2013-01-02 20:05:00,42.6,34.9,30.13,East,83,0.0,2.0,74,0.00,,,0.07,Wunderground v.1.15,2013-01-03 01:05:00,
2013-01-02 20:06:00,42.6,34.5,30.13,East,83,0.0,2.0,73,0.00,,,0.07,Wunderground v.1.15,2013-01-03 01:06:00,
2013-01-02 20:07:00,42.6,34.5,30.13,East,82,1.0,2.0,73,0.00,,,0.07,Wunderground v.1.15,2013-01-03 01:07:00,
2013-01-02 20:10:00,42.5,34.8,30.13,East,83,0.0,1.0,74,0.00,,,0.07,Wunderground v.1.15,2013-01-03 01:10:00,
2013-01-02 20:11:00,42.5,34.8,30.13,East,82,1.0,1.0,74,0.00,,,0.07,Wunderground v.1.15,2013-01-03 01:11:00,
2013-01-02 20:12:00,42.5,34.8,30.13,East,82,0.0,2.0,74,0.00,,,0.07,Wunderground v.1.15,2013-01-03 01:12:00,
2013-01-02 20:15:00,42.5,34.8,30.13,ESE,113,0.0,2.0,74,0.00,,,0.07,Wunderground v.1.15,2013-01-03 01:15:00,
2013-01-02 20:16:00,42.5,34.8,30.13,East,86,2.0,2.0,74,0.00,,,0.07,Wunderground v.1.15,2013-01-03 01:16:00,
2013-01-02 20:17:00,42.4,34.7,30.13,East,87,0.0,2.0,74,0.00,,,0.07,Wunderground v.1.15,2013-01-03 01:17:00,
2013-01-02 20:20:00,42.4,34.7,30.13,East,82,2.0,2.0,74,0.00,,,0.07,Wunderground v.1.15,2013-01-03 01:20:00,
2013-01-02 20:21:00,42.4,34.4,30.13,East,82,1.0,2.0,73,0.00,,,0.07,Wunderground v.1.15,2013-01-03 01:21:00,
2013-01-02 20:22:00,42.3,34.3,30.12,East,82,2.0,2.0,73,0.00,,,0.07,Wunderground v.1.15,2013-01-03 01:22:00,
2013-01-02 20:25:00,42.3,34.3,30.13,West,264,1.0,2.0,73,0.00,,,0.07,Wunderground v.1.15,2013-01-03 01:25:00,
2013-01-02 20:26:00,42.3,34.3,30.13,West,264,1.0,2.0,73,0.00,,,0.07,Wunderground v.1.15,2013-01-03 01:26:00,
2013-01-02 20:27:00,42.3,35.3,30.14,West,264,1.0,2.0,76,0.00,,,0.07,Wunderground v.1.15,2013-01-03 01:27:00,
2013-01-02 20:31:00,42.2,34.5,30.14,ENE,70,0.0,2.0,74,0.00,,,0.07,Wunderground v.1.15,2013-01-03 01:31:00,
2013-01-02 20:32:00,42.1,34.7,30.14,ENE,70,0.0,2.0,75,0.00,,,0.07,Wunderground v.1.15,2013-01-03 01:32:00,
2013-01-02 20:33:00,42.1,34.7,30.14,ENE,72,2.0,2.0,75,0.00,,,0.07,Wunderground v.1.15,2013-01-03 01:33:00,
2013-01-02 20:36:00,42.1,34.7,30.14,ENE,72,0.0,2.0,75,0.00,,,0.07,Wunderground v.1.15,2013-01-03 01:36:00,
2013-01-02 20:37:00,42.1,35.1,30.14,NNE,23,1.0,2.0,76,0.00,,,0.07,Wunderground v.1.15,2013-01-03 01:37:00,
2013-01-02 20:38:00,42.1,34.4,30.14,NNE,23,0.0,2.0,74,0.00,,,0.07,Wunderground v.1.15,2013-01-03 01:38:00,
2013-01-02 20:41:00,42.1,34.7,30.14,NNE,23,0.0,2.0,75,0.00,,,0.07,Wunderground v.1.15,2013-01-03 01:41:00,
2013-01-02 20:42:00,42.0,34.3,30.15,ENE,65,1.0,2.0,74,0.00,,,0.07,Wunderground v.1.15,2013-01-03 01:42:00,
2013-01-02 20:44:00,42.1,34.4,30.15,East,94,2.0,2.0,74,0.00,,,0.07,Wunderground v.1.15,2013-01-03 01:44:00,
2013-01-02 20:46:00,42.1,34.4,30.15,East,91,1.0,2.0,74,0.00,,,0.07,Wunderground v.1.15,2013-01-03 01:46:00,
2013-01-02 20:48:00,42.1,34.4,30.15,ENE,62,1.0,3.0,74,0.00,,,0.07,Wunderground v.1.15,2013-01-03 01:48:00,
2013-01-02 20:49:00,42.0,34.0,30.15,SE,134,1.0,4.0,73,0.00,,,0.07,Wunderground v.1.15,2013-01-03 01:49:00,
2013-01-02 20:51:00,42.0,34.0,30.14,SE,126,0.0,1.0,73,0.00,,,0.07,Wunderground v.1.15,2013-01-03 01:51:00,
2013-01-02 20:53:00,42.0,34.0,30.14,ESE,120,0.0,1.0,73,0.00,,,0.07,Wunderground v.1.15,2013-01-03 01:53:00,
2013-01-02 20:54:00,42.0,34.0,30.14,ENE,74,2.0,2.0,73,0.00,,,0.07,Wunderground v.1.15,2013-01-03 01:54:00,
2013-01-02 20:56:00,42.0,34.0,30.14,ENE,70,0.0,2.0,73,0.00,,,0.07,Wunderground v.1.15,2013-01-03 01:56:00,
2013-01-02 20:58:00,42.0,34.3,30.14,ENE,66,1.0,2.0,74,0.00,,,0.07,Wunderground v.1.15,2013-01-03 01:58:00,
2013-01-02 20:59:00,42.0,34.3,30.14,ENE,66,1.0,2.0,74,0.00,,,0.07,Wunderground v.1.15,2013-01-03 01:59:00,
2013-01-02 21:01:00,41.9,34.2,30.15,ENE,67,0.0,1.0,74,0.00,,,0.07,Wunderground v.1.15,2013-01-03 02:01:00,
2013-01-02 21:02:00,41.9,34.6,30.15,ENE,67,0.0,1.0,75,0.00,,,0.07,Wunderground v.1.15,2013-01-03 02:02:00,
2013-01-02 21:03:00,41.9,34.2,30.15,ENE,68,0.0,1.0,74,0.00,,,0.07,Wunderground v.1.15,2013-01-03 02:03:00,
2013-01-02 21:04:00,41.9,34.2,30.14,ENE,68,0.0,1.0,74,0.00,,,0.07,Wunderground v.1.15,2013-01-03 02:04:00,
2013-01-02 21:06:00,41.9,34.2,30.13,ENE,68,1.0,2.0,74,0.00,,,0.07,Wunderground v.1.15,2013-01-03 02:06:00,
2013-01-02 21:07:00,41.9,34.2,30.13,ENE,68,1.0,2.0,74,0.00,,,0.07,Wunderground v.1.15,2013-01-03 02:07:00,
2013-01-02 21:09:00,41.8,34.1,30.13,ENE,68,0.0,2.0,74,0.00,,,0.07,Wunderground v.1.15,2013-01-03 02:09:00,
2013-01-02 21:10:00,41.8,34.1,30.14,ENE,68,0.0,0.0,74,0.00,,,0.07,Wunderground v.1.15,2013-01-03 02:10:00,
2013-01-02 21:11:00,41.8,34.8,30.14,ENE,68,0.0,0.0,76,0.00,,,0.07,Wunderground v.1.15,2013-01-03 02:11:00,
2013-01-02 21:12:00,41.8,34.8,30.14,ENE,68,1.0,1.0,76,0.00,,,0.07,Wunderground v.1.15,2013-01-03 02:12:00,
2013-01-02 21:14:00,41.8,34.5,30.14,ENE,68,0.0,1.0,75,0.00,,,0.07,Wunderground v.1.15,2013-01-03 02:14:00,
2013-01-02 21:15:00,41.7,34.4,30.14,ENE,68,0.0,1.0,75,0.00,,,0.07,Wunderground v.1.15,2013-01-03 02:15:00,
2013-01-02 21:16:00,41.7,34.4,30.14,ENE,68,0.0,1.0,75,0.00,,,0.07,Wunderground v.1.15,2013-01-03 02:16:00,
2013-01-02 21:17:00,41.7,34.4,30.14,ENE,68,1.0,1.0,75,0.00,,,0.07,Wunderground v.1.15,2013-01-03 02:17:00,
2013-01-02 21:19:00,41.7,34.7,30.14,ENE,68,1.0,1.0,76,0.00,,,0.07,Wunderground v.1.15,2013-01-03 02:19:00,
2013-01-02 21:20:00,41.6,34.3,30.15,ENE,68,0.0,1.0,75,0.00,,,0.07,Wunderground v.1.15,2013-01-03 02:20:00,
2013-01-02 21:21:00,41.6,34.6,30.15,ENE,68,0.0,1.0,76,0.00,,,0.07,Wunderground v.1.15,2013-01-03 02:21:00,
2013-01-02 21:22:00,41.6,34.6,30.15,NNE,16,1.0,2.0,76,0.00,,,0.07,Wunderground v.1.15,2013-01-03 02:22:00,
2013-01-02 21:24:00,41.5,34.2,30.15,NNE,17,0.0,2.0,75,0.00,,,0.07,Wunderground v.1.15,2013-01-03 02:24:00,
2013-01-02 21:25:00,41.5,34.2,30.15,NNE,17,0.0,2.0,75,0.00,,,0.07,Wunderground v.1.15,2013-01-03 02:25:00,
2013-01-02 21:26:00,41.5,34.5,30.15,NNE,18,0.0,2.0,76,0.00,,,0.07,Wunderground v.1.15,2013-01-03 02:26:00,
2013-01-02 21:27:00,41.5,34.5,30.15,NNE,19,0.0,2.0,76,0.00,,,0.07,Wunderground v.1.15,2013-01-03 02:27:00,
2013-01-02 21:29:00,41.4,34.7,30.15,ENE,60,1.0,2.0,77,0.00,,,0.07,Wunderground v.1.15,2013-01-03 02:29:00,
2013-01-02 21:30:00,41.4,34.4,30.15,ENE,58,0.0,1.0,76,0.00,,,0.07,Wunderground v.1.15,2013-01-03 02:30:00,
2013-01-02 21:31:00,41.4,34.4,30.15,ENE,58,0.0,1.0,76,0.00,,,0.07,Wunderground v.1.15,2013-01-03 02:31:00,
2013-01-02 21:32:00,41.4,34.4,30.15,ENE,58,0.0,1.0,76,0.00,,,0.07,Wunderground v.1.15,2013-01-03 02:32:00,
2013-01-02 21:34:00,41.4,34.7,30.15,North,5,0.0,1.0,77,0.00,,,0.07,Wunderground v.1.15,2013-01-03 02:34:00,
2013-01-02 21:35:00,41.4,34.7,30.15,North,4,0.0,1.0,77,0.00,,,0.07,Wunderground v.1.15,2013-01-03 02:35:00,
2013-01-02 21:36:00,41.3,34.6,30.15,North,5,0.0,1.0,77,0.00,,,0.07,Wunderground v.1.15,2013-01-03 02:36:00,
2013-01-02 21:37:00,41.3,34.3,30.16,NE,51,1.0,2.0,76,0.00,,,0.07,Wunderground v.1.15,2013-01-03 02:37:00,
2013-01-02 21:39:00,41.3,34.3,30.15,NE,51,0.0,2.0,76,0.00,,,0.07,Wunderground v.1.15,2013-01-03 02:39:00,
2013-01-02 21:40:00,41.3,34.3,30.16,NE,34,0.0,0.0,76,0.00,,,0.07,Wunderground v.1.15,2013-01-03 02:40:00,
2013-01-02 21:41:00,41.3,34.3,30.16,North,6,0.0,1.0,76,0.00,,,0.07,Wunderground v.1.15,2013-01-03 02:41:00,
2013-01-02 21:42:00,41.3,34.3,30.16,North,6,0.0,1.0,76,0.00,,,0.07,Wunderground v.1.15,2013-01-03 02:42:00,
2013-01-02 21:45:00,41.3,34.3,30.16,North,6,0.0,1.0,76,0.00,,,0.07,Wunderground v.1.15,2013-01-03 02:45:00,
2013-01-02 21:46:00,41.3,34.3,30.16,North,6,0.0,1.0,76,0.00,,,0.07,Wunderground v.1.15,2013-01-03 02:46:00,
2013-01-02 21:48:00,41.2,33.9,30.16,North,6,0.0,1.0,75,0.00,,,0.07,Wunderground v.1.15,2013-01-03 02:48:00,
2013-01-02 21:50:00,41.3,34.3,30.15,ESE,113,0.0,0.0,76,0.00,,,0.07,Wunderground v.1.15,2013-01-03 02:50:00,
2013-01-02 21:51:00,41.3,34.0,30.15,SE,145,0.0,0.0,75,0.00,,,0.07,Wunderground v.1.15,2013-01-03 02:51:00,
2013-01-02 21:53:00,41.3,34.0,30.15,SE,139,0.0,1.0,75,0.00,,,0.07,Wunderground v.1.15,2013-01-03 02:53:00,
2013-01-02 21:55:00,41.3,34.0,30.16,SE,139,0.0,1.0,75,0.00,,,0.07,Wunderground v.1.15,2013-01-03 02:55:00,
2013-01-02 21:56:00,41.3,34.0,30.16,SE,139,0.0,1.0,75,0.00,,,0.07,Wunderground v.1.15,2013-01-03 02:56:00,
2013-01-02 21:57:00,41.3,34.3,30.16,SE,140,0.0,1.0,76,0.00,,,0.07,Wunderground v.1.15,2013-01-03 02:57:00,
2013-01-02 21:58:00,41.3,34.3,30.16,SE,139,0.0,1.0,76,0.00,,,0.07,Wunderground v.1.15,2013-01-03 02:58:00,
2013-01-02 22:01:00,41.3,34.3,30.15,SE,132,0.0,1.0,76,0.00,,,0.07,Wunderground v.1.15,2013-01-03 03:01:00,
2013-01-02 22:02:00,41.2,34.2,30.16,SE,132,0.0,1.0,76,0.00,,,0.07,Wunderground v.1.15,2013-01-03 03:02:00,
2013-01-02 22:03:00,41.2,33.9,30.16,SE,132,0.0,1.0,75,0.00,,,0.07,Wunderground v.1.15,2013-01-03 03:03:00,
2013-01-02 22:06:00,41.2,34.5,30.17,SE,133,0.0,1.0,77,0.00,,,0.07,Wunderground v.1.15,2013-01-03 03:06:00,
2013-01-02 22:07:00,41.2,34.2,30.16,SE,132,0.0,1.0,76,0.00,,,0.07,Wunderground v.1.15,2013-01-03 03:07:00,
2013-01-02 22:08:00,41.2,34.2,30.16,SE,132,0.0,1.0,76,0.00,,,0.07,Wunderground v.1.15,2013-01-03 03:08:00,
2013-01-02 22:11:00,41.2,34.2,30.16,SE,132,0.0,0.0,76,0.00,,,0.07,Wunderground v.1.15,2013-01-03 03:11:00,
2013-01-02 22:12:00,41.2,33.9,30.16,SE,132,0.0,0.0,75,0.00,,,0.07,Wunderground v.1.15,2013-01-03 03:12:00,
2013-01-02 22:14:00,41.2,34.2,30.16,SE,132,0.0,0.0,76,0.00,,,0.07,Wunderground v.1.15,2013-01-03 03:14:00,
2013-01-02 22:16:00,41.2,34.5,30.17,SE,132,0.0,0.0,77,0.00,,,0.07,Wunderground v.1.15,2013-01-03 03:16:00,
2013-01-02 22:17:00,41.2,34.5,30.17,SE,133,0.0,0.0,77,0.00,,,0.07,Wunderground v.1.15,2013-01-03 03:17:00,
2013-01-02 22:19:00,41.2,34.2,30.17,SE,132,0.0,0.0,76,0.00,,,0.07,Wunderground v.1.15,2013-01-03 03:19:00,
2013-01-02 22:21:00,41.1,34.1,30.16,SE,132,0.0,1.0,76,0.00,,,0.07,Wunderground v.1.15,2013-01-03 03:21:00,
2013-01-02 22:22:00,41.1,34.1,30.16,SE,133,0.0,1.0,76,0.00,,,0.07,Wunderground v.1.15,2013-01-03 03:22:00,
2013-01-02 22:23:00,41.1,34.4,30.16,SE,133,0.0,1.0,77,0.00,,,0.07,Wunderground v.1.15,2013-01-03 03:23:00,
2013-01-02 22:24:00,41.1,34.4,30.16,SE,132,0.0,1.0,77,0.00,,,0.07,Wunderground v.1.15,2013-01-03 03:24:00,
2013-01-02 22:26:00,41.1,34.4,30.16,SE,133,0.0,1.0,77,0.00,,,0.07,Wunderground v.1.15,2013-01-03 03:26:00,
2013-01-02 22:27:00,41.1,34.4,30.16,SE,132,0.0,1.0,77,0.00,,,0.07,Wunderground v.1.15,2013-01-03 03:27:00,
2013-01-02 22:28:00,41.1,34.8,30.16,SE,132,0.0,1.0,78,0.00,,,0.07,Wunderground v.1.15,2013-01-03 03:28:00,
2013-01-02 22:29:00,41.1,34.8,30.16,SE,132,0.0,1.0,78,0.00,,,0.07,Wunderground v.1.15,2013-01-03 03:29:00,
2013-01-02 22:32:00,41.0,35.0,30.17,SE,132,0.0,0.0,79,0.00,,,0.07,Wunderground v.1.15,2013-01-03 03:32:00,
2013-01-02 22:33:00,41.0,35.0,30.17,SE,132,0.0,0.0,79,0.00,,,0.07,Wunderground v.1.15,2013-01-03 03:33:00,
2013-01-02 22:36:00,40.9,34.6,30.16,SE,132,0.0,1.0,78,0.00,,,0.07,Wunderground v.1.15,2013-01-03 03:36:00,
2013-01-02 22:37:00,40.9,34.9,30.16,SE,132,0.0,1.0,79,0.00,,,0.07,Wunderground v.1.15,2013-01-03 03:37:00,
2013-01-02 22:39:00,40.9,34.9,30.17,SE,132,0.0,1.0,79,0.00,,,0.07,Wunderground v.1.15,2013-01-03 03:39:00,
2013-01-02 22:43:00,40.8,34.5,30.17,SE,133,0.0,0.0,78,0.00,,,0.07,Wunderground v.1.15,2013-01-03 03:43:00,
2013-01-02 22:44:00,40.8,34.5,30.17,SE,132,0.0,0.0,78,0.00,,,0.07,Wunderground v.1.15,2013-01-03 03:44:00,
2013-01-02 22:46:00,40.8,34.8,30.17,SE,132,0.0,1.0,79,0.00,,,0.07,Wunderground v.1.15,2013-01-03 03:46:00,
2013-01-02 22:48:00,40.8,34.8,30.17,SE,132,0.0,1.0,79,0.00,,,0.07,Wunderground v.1.15,2013-01-03 03:48:00,
2013-01-02 22:49:00,40.8,34.8,30.17,SE,132,0.0,1.0,79,0.00,,,0.07,Wunderground v.1.15,2013-01-03 03:49:00,
2013-01-02 22:52:00,40.8,34.8,30.17,SE,133,0.0,0.0,79,0.00,,,0.07,Wunderground v.1.15,2013-01-03 03:52:00,
2013-01-02 22:53:00,40.8,35.1,30.17,SE,133,0.0,0.0,80,0.00,,,0.07,Wunderground v.1.15,2013-01-03 03:53:00,
2013-01-02 22:54:00,40.8,34.8,30.17,SE,132,0.0,0.0,79,0.00,,,0.07,Wunderground v.1.15,2013-01-03 03:54:00,
2013-01-02 22:57:00,40.8,34.8,30.17,SE,132,0.0,0.0,79,0.00,,,0.07,Wunderground v.1.15,2013-01-03 03:57:00,
2013-01-02 22:58:00,40.8,34.8,30.17,SE,132,0.0,0.0,79,0.00,,,0.07,Wunderground v.1.15,2013-01-03 03:58:00,
2013-01-02 22:59:00,40.7,34.7,30.17,SE,133,0.0,0.0,79,0.00,,,0.07,Wunderground v.1.15,2013-01-03 03:59:00,
2013-01-02 23:02:00,40.8,34.1,30.16,SE,133,0.0,0.0,77,0.00,,,0.07,Wunderground v.1.15,2013-01-03 04:02:00,
2013-01-02 23:03:00,40.8,34.5,30.17,SE,133,0.0,0.0,78,0.00,,,0.07,Wunderground v.1.15,2013-01-03 04:03:00,
2013-01-02 23:04:00,40.8,34.5,30.17,SE,132,0.0,0.0,78,0.00,,,0.07,Wunderground v.1.15,2013-01-03 04:04:00,
2013-01-02 23:07:00,40.8,34.5,30.17,SE,132,0.0,0.0,78,0.00,,,0.07,Wunderground v.1.15,2013-01-03 04:07:00,
2013-01-02 23:09:00,40.8,34.5,30.17,SE,133,0.0,0.0,78,0.00,,,0.07,Wunderground v.1.15,2013-01-03 04:09:00,
2013-01-02 23:12:00,40.8,35.1,30.16,SE,132,0.0,0.0,80,0.00,,,0.07,Wunderground v.1.15,2013-01-03 04:12:00,
2013-01-02 23:14:00,40.8,35.1,30.16,SE,132,0.0,0.0,80,0.00,,,0.07,Wunderground v.1.15,2013-01-03 04:14:00,
2013-01-02 23:15:00,40.8,35.1,30.16,SE,133,0.0,0.0,80,0.00,,,0.07,Wunderground v.1.15,2013-01-03 04:15:00,
2013-01-02 23:17:00,40.7,34.7,30.17,SE,133,0.0,0.0,79,0.00,,,0.07,Wunderground v.1.15,2013-01-03 04:17:00,
2013-01-02 23:19:00,40.7,35.0,30.17,SE,133,0.0,0.0,80,0.00,,,0.07,Wunderground v.1.15,2013-01-03 04:19:00,
2013-01-02 23:20:00,40.7,35.0,30.17,SE,132,0.0,0.0,80,0.00,,,0.07,Wunderground v.1.15,2013-01-03 04:20:00,
2013-01-02 23:23:00,40.7,35.0,30.16,SE,132,0.0,0.0,80,0.00,,,0.07,Wunderground v.1.15,2013-01-03 04:23:00,
2013-01-02 23:24:00,40.7,35.0,30.16,SE,132,0.0,0.0,80,0.00,,,0.07,Wunderground v.1.15,2013-01-03 04:24:00,
2013-01-02 23:25:00,40.7,35.0,30.16,SE,133,0.0,0.0,80,0.00,,,0.07,Wunderground v.1.15,2013-01-03 04:25:00,
2013-01-02 23:28:00,40.7,34.4,30.16,SE,132,0.0,0.0,78,0.00,,,0.07,Wunderground v.1.15,2013-01-03 04:28:00,
2013-01-02 23:29:00,40.6,34.3,30.17,SE,132,0.0,0.0,78,0.00,,,0.07,Wunderground v.1.15,2013-01-03 04:29:00,
2013-01-02 23:30:00,40.7,34.4,30.17,SE,133,0.0,0.0,78,0.00,,,0.07,Wunderground v.1.15,2013-01-03 04:30:00,
2013-01-02 23:33:00,40.7,35.0,30.17,SE,132,0.0,0.0,80,0.00,,,0.07,Wunderground v.1.15,2013-01-03 04:33:00,
2013-01-02 23:34:00,40.7,35.0,30.17,SE,133,0.0,0.0,80,0.00,,,0.07,Wunderground v.1.15,2013-01-03 04:34:00,
2013-01-02 23:35:00,40.7,35.0,30.17,SE,133,0.0,0.0,80,0.00,,,0.07,Wunderground v.1.15,2013-01-03 04:35:00,
2013-01-02 23:38:00,40.7,35.3,30.16,SE,132,0.0,0.0,81,0.00,,,0.07,Wunderground v.1.15,2013-01-03 04:38:00,
2013-01-02 23:39:00,40.6,35.2,30.17,SE,132,0.0,0.0,81,0.00,,,0.07,Wunderground v.1.15,2013-01-03 04:39:00,
2013-01-02 23:40:00,40.6,35.2,30.17,SE,132,0.0,0.0,81,0.00,,,0.07,Wunderground v.1.15,2013-01-03 04:40:00,
2013-01-02 23:43:00,40.6,34.9,30.16,SE,132,0.0,0.0,80,0.00,,,0.07,Wunderground v.1.15,2013-01-03 04:43:00,
2013-01-02 23:45:00,40.5,34.8,30.17,SE,132,0.0,0.0,80,0.00,,,0.07,Wunderground v.1.15,2013-01-03 04:45:00,
2013-01-02 23:48:00,40.6,34.9,30.17,SE,133,0.0,1.0,80,0.00,,,0.07,Wunderground v.1.15,2013-01-03 04:48:00,
2013-01-02 23:50:00,40.5,35.1,30.17,SE,132,1.0,1.0,81,0.00,,,0.07,Wunderground v.1.15,2013-01-03 04:50:00,
2013-01-02 23:53:00,40.5,35.1,30.17,SE,132,0.0,1.0,81,0.00,,,0.07,Wunderground v.1.15,2013-01-03 04:53:00,
2013-01-02 23:55:00,40.4,35.0,30.17,SE,134,0.0,1.0,81,0.00,,,0.07,Wunderground v.1.15,2013-01-03 04:55:00,
2013-01-02 23:56:00,40.5,35.1,30.17,SE,133,0.0,1.0,81,0.00,,,0.07,Wunderground v.1.15,2013-01-03 04:56:00,
2013-01-02 23:58:00,40.5,35.1,30.16,SE,133,0.0,1.0,81,0.00,,,0.07,Wunderground v.1.15,2013-01-03 04:58:00,